GEFSMW_con_probscp_108.txt.gz
Probability
13 11 8 7 7 6 5 5 6 6 8 10 10 8 6 5 3 2 3 6 9 10 10 9 8 7 6 4 2 2 1 0 0 0 0 0 0 0 0 0 0 0 0
12 9 7 7 6 5 4 4 4 5 6 6 6 5 4 3 2 1 2 5 8 9 9 8 7 6 6 3 1 1 0 0 0 0 0 0 0 0 0 0 0 0 0
10 8 6 5 4 3 3 3 3 3 3 3 3 3 2 2 1 1 2 4 6 6 6 6 5 5 5 3 1 0 0 0 0 0 0 0 0 0 0 0 0 0 0
6 5 4 3 3 2 2 2 1 1 1 2 2 2 2 2 2 2 2 3 4 4 4 4 4 4 3 1 0 0 0 0 0 0 0 0 0 0 0 0 0 0 0
4 4 3 3 2 1 1 1 0 0 0 1 1 1 1 1 1 1 2 3 3 3 3 3 3 3 1 0 0 0 0 0 0 0 0 0 0 0 0 0 0 0 0
3 3 3 3 2 1 0 0 0 0 0 0 0 0 0 0 0 0 1 2 3 3 3 3 3 2 1 0 0 0 0 0 0 0 0 0 0 0 0 0 0 0 0
2 3 3 3 2 1 0 0 0 0 0 0 0 0 0 0 0 0 1 1 2 2 3 3 3 2 1 0 0 0 0 0 0 0 0 0 0 0 0 0 0 0 0
1 1 2 2 1 0 0 0 0 0 0 0 0 0 0 0 0 0 0 0 1 1 1 2 2 2 1 0 0 0 0 0 0 0 0 0 0 0 0 0 0 0 0
0 0 1 1 0 0 0 0 0 0 0 0 0 0 0 0 0 0 0 0 0 0 0 1 1 1 0 0 0 0 0 0 0 0 0 0 0 0 0 0 0 0 0
0 0 0 0 0 0 0 0 0 0 0 0 0 0 0 0 0 0 0 0 0 0 0 0 0 0 0 0 0 0 0 0 0 0 0 0 0 0 0 0 0 0 0
0 0 0 0 0 0 0 0 0 0 0 0 0 0 0 0 0 0 0 0 0 0 0 0 0 0 0 0 0 0 0 0 0 0 0 0 0 0 0 0 0 0 0
0 0 0 0 0 0 0 0 0 0 0 0 0 0 0 0 0 0 0 0 0 0 0 0 0 0 0 0 0 0 0 0 0 0 0 0 0 0 0 0 0 0 0
0 0 0 0 0 0 0 0 0 0 0 0 0 0 0 0 0 0 0 0 0 0 0 0 0 0 0 0 0 0 0 0 0 0 0 0 0 0 0 0 0 0 0
0 0 0 0 0 0 0 0 0 0 0 0 0 0 0 0 0 0 0 0 0 0 0 0 0 0 0 0 0 0 0 0 0 0 0 0 0 0 0 0 0 0 0
0 0 0 0 0 0 0 0 0 0 0 0 0 0 0 0 0 0 0 0 0 0 0 0 0 0 0 0 0 0 0 0 0 0 0 0 0 0 0 0 0 0 0
0 0 0 0 0 0 0 0 0 0 0 0 0 0 0 0 0 0 0 0 0 0 0 0 0 0 0 0 0 0 0 0 0 0 0 0 0 0 0 0 0 0 0
0 0 0 0 0 0 0 0 0 0 0 0 0 0 0 0 0 0 0 0 0 0 0 0 0 0 0 0 0 0 0 0 0 0 0 0 0 0 0 0 0 0 0
0 0 0 0 0 0 0 0 0 0 0 0 0 0 0 0 0 0 0 0 0 0 0 0 0 0 0 0 0 0 0 0 0 0 0 0 0 0 0 0 0 0 0
0 0 0 0 0 0 0 0 0 0 0 0 0 0 0 0 0 0 0 0 0 0 0 0 0 0 0 0 0 0 0 0 0 0 0 0 0 0 0 0 0 0 0
0 0 0 0 0 0 0 0 0 0 0 0 0 0 0 0 0 0 0 0 0 0 0 0 0 0 0 0 0 0 0 0 0 0 0 0 0 0 0 0 0 0 0
0 0 0 0 0 0 0 0 0 0 0 0 0 0 0 0 0 0 0 0 0 0 0 0 0 0 0 0 0 0 0 0 0 0 0 0 0 0 0 0 0 0 0
0 0 0 0 0 0 0 0 0 0 0 0 0 0 0 0 0 0 0 0 0 0 0 0 0 0 0 0 0 0 0 0 0 0 0 0 0 0 0 0 0 0 0
0 0 0 0 0 0 0 0 0 0 0 0 0 0 0 0 0 0 0 0 0 0 0 0 0 0 0 0 0 0 0 0 0 0 0 0 0 0 0 0 0 0 0
0 0 0 0 0 0 0 0 0 0 0 0 0 0 0 0 0 0 0 0 0 0 0 0 0 0 0 0 0 0 0 0 0 0 0 0 0 0 0 0 0 0 0
0 0 0 0 0 0 0 0 0 0 0 0 0 0 0 0 0 0 0 0 0 0 0 0 0 0 0 0 0 0 0 0 0 0 0 0 0 0 0 0 0 0 0
0 0 0 0 0 0 0 0 0 0 0 0 0 0 0 0 0 0 0 0 0 0 0 0 0 0 0 0 0 0 0 0 0 0 0 0 0 0 0 0 0 0 0

GEFSMW_con_probscp_114.txt.gz
Probability
10 11 13 13 13 14 17 20 20 19 20 24 26 25 21 19 16 11 7 5 4 5 10 13 14 15 15 15 16 18 17 14 13 10 5 2 2 4 4 4 6 7 9
12 13 13 14 12 10 12 15 17 17 17 20 22 21 19 15 11 8 6 4 2 3 6 11 13 14 14 14 14 16 15 12 10 8 4 2 1 1 2 2 3 4 5
16 15 13 10 7 5 5 8 11 13 14 15 15 15 14 10 7 5 4 2 2 2 5 8 10 12 12 11 11 12 11 9 7 6 5 3 1 0 0 0 1 1 1
17 15 10 5 2 2 2 4 7 9 11 10 9 10 10 9 6 5 3 2 2 2 5 7 8 10 11 10 9 8 8 6 6 6 5 3 1 0 0 0 0 0 0
13 11 6 2 0 2 3 4 5 7 7 7 7 7 7 7 6 4 2 1 1 2 4 6 7 9 10 9 8 7 6 6 6 6 4 2 1 0 0 0 0 0 0
7 5 2 1 1 2 3 3 4 5 5 5 5 5 5 4 4 2 1 0 0 1 3 4 5 7 8 8 7 7 6 6 6 5 3 1 0 0 0 0 0 0 0
3 2 1 1 1 3 3 3 3 4 5 4 4 4 3 3 2 1 0 0 1 1 3 3 4 4 5 6 6 6 5 4 4 3 1 0 0 0 0 0 0 0 0
1 0 0 1 2 2 2 2 1 1 2 3 3 3 3 2 1 0 0 1 2 3 3 3 3 3 3 4 5 5 4 3 2 2 1 0 0 0 0 0 0 0 0
0 0 0 1 1 1 1 1 0 0 1 1 2 2 1 1 0 0 0 1 2 2 3 3 3 3 3 3 4 4 2 1 1 1 0 0 0 0 0 0 0 0 0
0 0 0 0 0 0 0 0 0 0 0 0 1 1 0 0 0 0 0 0 1 1 1 2 2 2 2 2 2 2 1 0 0 0 0 0 0 0 0 0 0 0 0
0 0 0 0 0 0 0 0 0 0 0 0 0 0 0 0 0 0 0 0 0 0 0 1 1 1 1 1 1 1 0 0 0 0 0 0 0 0 0 0 0 0 0
0 0 0 0 0 0 0 0 0 0 0 0 0 0 0 0 0 0 0 0 0 0 0 0 0 0 0 0 0 0 0 0 0 0 0 0 0 0 0 0 0 0 0
0 0 0 0 0 0 0 0 0 0 0 0 0 0 0 0 0 0 0 0 0 0 0 0 0 0 0 0 0 0 0 0 0 0 0 0 0 0 0 0 0 0 0
0 0 0 0 0 0 0 0 0 0 0 0 0 0 0 0 0 0 0 0 0 0 0 0 0 0 0 0 0 0 0 0 0 0 0 0 0 0 0 0 0 0 0
0 0 0 0 0 0 0 0 0 0 0 0 0 0 0 0 0 0 0 0 0 0 0 0 0 0 0 0 0 0 0 0 0 0 0 0 0 0 0 0 0 0 0
0 0 0 0 0 0 0 0 0 0 0 0 0 0 0 0 0 0 0 0 0 0 0 0 0 0 0 0 0 0 0 0 0 0 0 0 0 0 0 0 0 0 0
0 0 0 0 0 0 0 0 0 0 0 0 0 0 0 0 0 0 0 0 0 0 0 0 0 0 0 0 0 0 0 0 0 0 0 0 0 0 0 0 0 0 0
0 0 0 0 0 0 0 0 0 0 0 0 0 0 0 0 0 0 0 0 0 0 0 0 0 0 0 0 0 0 0 0 0 0 0 0 0 0 0 0 0 0 0
0 0 0 0 0 0 0 0 0 0 0 0 0 0 0 0 0 0 0 0 0 0 0 0 0 0 0 0 0 0 0 0 0 0 0 0 0 0 0 0 0 0 0
0 0 0 0 0 0 0 0 0 0 0 0 0 0 0 0 0 0 0 0 0 0 0 0 0 0 0 0 0 0 0 0 0 0 0 0 0 0 0 0 0 0 0
0 0 0 0 0 0 0 0 0 0 0 0 0 0 0 0 0 0 0 0 0 0 0 0 0 0 0 0 0 0 0 0 0 0 0 0 0 0 0 0 0 0 0
0 0 0 0 0 0 0 0 0 0 0 0 0 0 0 0 0 0 0 0 0 0 0 0 0 0 0 0 0 0 0 0 0 0 0 0 0 0 0 0 0 0 0
0 0 0 0 0 0 0 0 0 0 0 0 0 0 0 0 0 0 0 0 0 0 0 0 0 0 0 0 0 0 0 0 0 0 0 0 0 0 0 0 0 0 0
0 0 0 0 0 0 0 0 0 0 0 0 0 0 0 0 0 0 0 0 0 0 0 0 0 0 0 0 0 0 0 0 0 0 0 0 0 0 0 0 0 0 0
0 0 0 0 0 0 0 0 0 0 0 0 0 0 0 0 0 0 0 0 0 0 0 0 0 0 0 0 0 0 0 0 0 0 0 0 0 0 0 0 0 0 0
0 0 0 0 0 0 0 0 0 0 0 0 0 0 0 0 0 0 0 0 0 0 0 0 0 0 0 0 0 0 0 0 0 0 0 0 0 0 0 0 0 0 0

GEFSMW_con_probscp_120.txt.gz
Probability
30 27 24 24 26 28 28 27 31 37 42 47 51 50 46 42 38 33 30 28 26 26 25 25 26 27 26 23 19 18 15 11 10 9 7 5 3 2 2 3 5 7 7
25 23 20 19 22 25 25 25 29 34 37 41 44 45 43 39 34 29 26 24 22 22 22 23 23 24 23 21 18 15 13 10 8 8 7 4 2 1 1 2 3 5 5
22 19 16 16 19 21 20 21 24 28 30 33 38 40 39 34 28 23 20 19 18 18 18 18 18 19 18 17 14 12 11 9 7 6 6 4 3 1 0 1 2 2 2
25 21 18 16 17 17 16 18 20 23 24 28 33 35 33 28 22 18 17 16 14 13 13 12 12 12 12 12 11 10 10 9 7 5 5 5 4 1 0 0 1 1 1
29 24 18 14 13 12 11 13 15 17 19 21 25 27 24 19 17 16 15 13 11 9 8 8 7 7 7 8 9 9 9 8 7 6 5 4 3 1 0 0 0 0 0
27 21 14 10 8 7 7 8 10 11 12 14 16 17 16 14 13 13 12 10 8 6 5 4 4 4 4 5 7 7 7 7 7 7 5 4 3 1 0 0 0 0 0
19 16 10 6 4 3 5 5 5 6 7 9 10 11 11 11 11 10 9 7 5 3 3 3 3 3 3 4 4 5 6 6 6 6 5 3 3 2 0 0 0 0 0
13 9 5 3 1 1 3 3 3 3 3 5 5 6 7 7 7 7 5 3 1 1 2 3 3 3 3 3 3 4 5 6 6 6 5 2 2 1 0 0 0 0 0
7 4 2 1 0 0 1 1 1 1 1 1 2 2 3 2 2 2 1 0 0 1 2 3 3 3 3 3 3 4 4 5 5 5 4 1 0 0 0 0 0 0 0
3 1 0 0 0 0 0 0 0 0 0 0 0 0 0 0 0 0 0 0 0 0 1 2 2 2 2 3 3 3 3 3 3 3 2 0 0 0 0 0 0 0 0
1 0 0 0 0 0 0 0 0 0 0 0 0 0 0 0 0 0 0 0 0 0 0 1 1 1 1 1 2 2 2 1 1 1 0 0 0 0 0 0 0 0 0
0 0 0 0 0 0 0 0 0 0 0 0 0 0 0 0 0 0 0 0 0 0 0 0 0 0 0 0 1 1 1 0 0 0 0 0 0 0 0 0 0 0 0
0 0 0 0 0 0 0 0 0 0 0 0 0 0 0 0 0 0 0 0 0 0 0 0 0 0 0 0 0 0 0 0 0 0 0 0 0 0 0 0 0 0 0
0 0 0 0 0 0 0 0 0 0 0 0 0 0 0 0 0 0 0 0 0 0 0 0 0 0 0 0 0 0 0 0 0 0 0 0 0 0 0 0 0 0 0
0 0 0 0 0 0 0 0 0 0 0 0 0 0 0 0 0 0 0 0 0 0 0 0 0 0 0 0 0 0 0 0 0 0 0 0 0 0 0 0 0 0 0
0 0 0 0 0 0 0 0 0 0 0 0 0 0 0 0 0 0 0 0 0 0 0 0 0 0 0 0 0 0 0 0 0 0 0 0 0 0 0 0 0 0 0
0 0 0 0 0 0 0 0 0 0 0 0 0 0 0 0 0 0 0 0 0 0 0 0 0 0 0 0 0 0 0 0 0 0 0 0 0 0 0 0 0 0 0
0 0 0 0 0 0 0 0 0 0 0 0 0 0 0 0 0 0 0 0 0 0 0 0 0 0 0 0 0 0 0 0 0 0 0 0 0 0 0 0 0 0 0
0 0 0 0 0 0 0 0 0 0 0 0 0 0 0 0 0 0 0 0 0 0 0 0 0 0 0 0 0 0 0 0 0 0 0 0 0 0 0 0 0 0 0
0 0 0 0 0 0 0 0 0 0 0 0 0 0 0 0 0 0 0 0 0 0 0 0 0 0 0 0 0 0 0 0 0 0 0 0 0 0 0 0 0 0 0
0 0 0 0 0 0 0 0 0 0 0 0 0 0 0 0 0 0 0 0 0 0 0 0 0 0 0 0 0 0 0 0 0 0 0 0 0 0 0 0 0 0 0
0 0 0 0 0 0 0 0 0 0 0 0 0 0 0 0 0 0 0 0 0 0 0 0 0 0 0 0 0 0 0 0 0 0 0 0 0 0 0 0 0 0 0
0 0 0 0 0 0 0 0 0 0 0 0 0 0 0 0 0 0 0 0 0 0 0 0 0 0 0 0 0 0 0 0 0 0 0 0 0 0 0 0 0 0 0
0 0 0 0 0 0 0 0 0 0 0 0 0 0 0 0 0 0 0 0 0 0 0 0 0 0 0 0 0 0 0 0 0 0 0 0 0 0 0 0 0 0 0
0 0 0 0 0 0 0 0 0 0 0 0 0 0 0 0 0 0 0 0 0 0 0 0 0 0 0 0 0 0 0 0 0 0 0 0 0 0 0 0 0 0 0
0 0 0 0 0 0 0 0 0 0 0 0 0 0 0 0 0 0 0 0 0 0 0 0 0 0 0 0 0 0 0 0 0 0 0 0 0 0 0 0 0 0 0

GEFSMW_con_probscp_126.txt.gz
Probability
12 11 8 7 6 6 5 5 6 6 7 9 9 9 11 10 7 5 4 3 4 5 5 4 2 1 0 0 0 0 0 0 0 0 0 0 0 0 0 0 0 0 0
12 11 8 7 6 6 6 5 5 5 7 8 8 7 7 6 5 4 3 3 3 4 3 2 1 0 0 0 0 0 0 0 0 0 0 0 0 0 0 0 0 0 0
11 10 8 6 6 6 6 5 4 4 5 6 7 7 5 4 3 3 3 3 3 3 2 1 0 0 1 1 1 1 1 1 0 0 0 0 0 0 0 0 0 0 0
11 9 7 5 4 5 4 4 3 3 2 4 6 7 7 6 4 4 3 3 2 1 1 0 0 0 1 2 2 2 2 2 1 0 0 0 0 0 0 0 0 0 0
9 7 5 3 3 4 3 3 3 2 2 3 4 5 6 6 5 4 3 1 1 0 0 0 0 0 1 2 3 3 3 3 2 1 0 0 0 0 0 0 0 0 0
6 4 2 1 2 3 3 3 3 2 2 2 3 3 4 4 4 3 1 0 0 0 0 0 0 0 0 1 2 3 3 3 3 1 0 0 0 0 0 0 0 0 0
4 2 0 0 1 2 2 2 2 1 1 1 2 2 2 2 2 1 0 0 0 0 0 0 0 0 0 0 1 2 2 3 3 2 1 0 0 0 0 0 0 0 0
3 2 0 0 0 1 1 1 1 0 0 0 1 1 1 1 0 0 0 0 0 0 0 0 0 0 0 0 0 1 1 1 2 2 1 0 0 0 0 0 0 0 0
1 1 0 0 0 0 0 0 0 0 0 0 0 0 0 0 0 0 0 0 0 0 0 0 0 0 0 0 0 0 0 0 1 1 0 0 0 0 0 0 0 0 0
0 0 0 0 0 0 0 0 0 0 0 0 0 0 0 0 0 0 0 0 0 0 0 0 0 0 0 0 0 0 0 0 0 0 0 0 0 0 0 0 0 0 0
0 0 0 0 0 0 0 0 0 0 0 0 0 0 0 0 0 0 0 0 0 0 0 0 0 0 0 0 0 0 0 0 0 0 0 0 0 0 0 0 0 0 0
0 0 0 0 0 0 0 0 0 0 0 0 0 0 0 0 0 0 0 0 0 0 0 0 0 0 0 0 0 0 0 0 0 0 0 0 0 0 0 0 0 0 0
0 0 0 0 0 0 0 0 0 0 0 0 0 0 0 0 0 0 0 0 0 0 0 0 0 0 0 0 0 0 0 0 0 0 0 0 0 0 0 0 0 0 0
0 0 0 0 0 0 0 0 0 0 0 0 0 0 0 0 0 0 0 0 0 0 0 0 0 0 0 0 0 0 0 0 0 0 0 0 0 0 0 0 0 0 0
0 0 0 0 0 0 0 0 0 0 0 0 0 0 0 0 0 0 0 0 0 0 0 0 0 0 0 0 0 0 0 0 0 0 0 0 0 0 0 0 0 0 0
0 0 0 0 0 0 0 0 0 0 0 0 0 0 0 0 0 0 0 0 0 0 0 0 0 0 0 0 0 0 0 0 0 0 0 0 0 0 0 0 0 0 0
0 0 0 0 0 0 0 0 0 0 0 0 0 0 0 0 0 0 0 0 0 0 0 0 0 0 0 0 0 0 0 0 0 0 0 0 0 0 0 0 0 0 0
0 0 0 0 0 0 0 0 0 0 0 0 0 0 0 0 0 0 0 0 0 0 0 0 0 0 0 0 0 0 0 0 0 0 0 0 0 0 0 0 0 0 0
0 0 0 0 0 0 0 0 0 0 0 0 0 0 0 0 0 0 0 0 0 0 0 0 0 0 0 0 0 0 0 0 0 0 0 0 0 0 0 0 0 0 0
0 0 0 0 0 0 0 0 0 0 0 0 0 0 0 0 0 0 0 0 0 0 0 0 0 0 0 0 0 0 0 0 0 0 0 0 0 0 0 0 0 0 0
0 0 0 0 0 0 0 0 0 0 0 0 0 0 0 0 0 0 0 0 0 0 0 0 0 0 0 0 0 0 0 0 0 0 0 0 0 0 0 0 0 0 0
0 0 0 0 0 0 0 0 0 0 0 0 0 0 0 0 0 0 0 0 0 0 0 0 0 0 0 0 0 0 0 0 0 0 0 0 0 0 0 0 0 0 0
0 0 0 0 0 0 0 0 0 0 0 0 0 0 0 0 0 0 0 0 0 0 0 0 0 0 0 0 0 0 0 0 0 0 0 0 0 0 0 0 0 0 0
0 0 0 0 0 0 0 0 0 0 0 0 0 0 0 0 0 0 0 0 0 0 0 0 0 0 0 0 0 0 0 0 0 0 0 0 0 0 0 0 0 0 0
0 0 0 0 0 0 0 0 0 0 0 0 0 0 0 0 0 0 0 0 0 0 0 0 0 0 0 0 0 0 0 0 0 0 0 0 0 0 0 0 0 0 0
0 0 0 0 0 0 0 0 0 0 0 0 0 0 0 0 0 0 0 0 0 0 0 0 0 0 0 0 0 0 0 0 0 0 0 0 0 0 0 0 0 0 0

GEFSMW_con_probscp_132.txt.gz
Probability
1 1 2 2 1 0 0 0 0 1 2 2 1 0 0 0 0 0 0 0 0 0 0 0 0 0 0 0 0 0 1 0 0 0 0 0 0 0 0 0 0 0 0
3 3 3 2 1 1 1 0 0 0 1 1 0 0 0 0 0 0 0 0 0 0 0 0 0 0 0 0 0 0 1 0 0 0 0 0 0 0 0 0 0 0 0
5 4 3 3 3 2 2 1 1 0 0 0 0 0 0 0 0 0 0 0 0 0 0 0 0 0 0 0 0 0 0 0 0 0 0 0 0 0 0 0 0 0 0
6 5 4 3 3 3 3 3 2 1 1 0 0 0 0 0 0 0 0 0 0 0 0 0 0 0 0 0 0 0 1 1 1 1 0 0 0 0 0 0 0 0 0
6 6 5 4 3 3 3 4 4 3 2 1 0 0 0 0 0 0 0 0 0 0 0 0 0 0 0 0 0 0 1 2 2 2 1 0 0 0 0 0 0 0 0
6 5 4 4 3 3 3 3 4 3 3 2 1 0 0 1 0 0 0 0 0 0 0 0 0 0 0 0 0 0 1 1 2 3 2 1 0 0 0 0 0 0 0
5 4 4 4 3 3 3 3 3 3 3 2 1 0 0 0 0 0 0 0 0 0 0 0 0 0 0 0 0 0 0 0 1 2 2 1 0 0 0 0 0 0 0
5 4 3 3 3 3 3 3 3 3 2 1 1 0 0 0 0 0 0 0 0 0 0 0 0 0 0 0 0 0 0 0 0 1 1 0 0 0 0 0 0 0 0
3 2 1 1 1 2 2 2 2 1 1 0 0 0 0 0 0 0 0 0 0 0 0 0 0 0 0 0 0 0 0 0 0 0 0 0 0 0 0 0 0 0 0
1 0 0 0 0 1 1 1 1 0 0 0 0 0 0 0 0 0 0 0 0 0 0 0 0 0 0 0 0 0 0 0 0 0 0 0 0 0 0 0 0 0 0
0 0 0 0 0 0 0 0 0 0 0 0 0 0 0 0 0 0 0 0 0 0 0 0 0 0 0 0 0 0 0 0 0 0 0 0 0 0 0 0 0 0 0
0 0 0 0 0 0 0 0 0 0 0 0 0 0 0 0 0 0 0 0 0 0 0 0 0 0 0 0 0 0 0 0 0 0 0 0 0 0 0 0 0 0 0
0 0 0 0 0 0 0 0 0 0 0 0 0 0 0 0 0 0 0 0 0 0 0 0 0 0 0 0 0 0 0 0 0 0 0 0 0 0 0 0 0 0 0
0 0 0 0 0 0 0 0 0 0 0 0 0 0 0 0 0 0 0 0 0 0 0 0 0 0 0 0 0 0 0 0 0 0 0 0 0 0 0 0 0 0 0
0 0 0 0 0 0 0 0 0 0 0 0 0 0 0 0 0 0 0 0 0 0 0 0 0 0 0 0 0 0 0 0 0 0 0 0 0 0 0 0 0 0 0
0 0 0 0 0 0 0 0 0 0 0 0 0 0 0 0 0 0 0 0 0 0 0 0 0 0 0 0 0 0 0 0 0 0 0 0 0 0 0 0 0 0 0
0 0 0 0 0 0 0 0 0 0 0 0 0 0 0 0 0 0 0 0 0 0 0 0 0 0 0 0 0 0 0 0 0 0 0 0 0 0 0 0 0 0 0
0 0 0 0 0 0 0 0 0 0 0 0 0 0 0 0 0 0 0 0 0 0 0 0 0 0 0 0 0 0 0 0 0 0 0 0 0 0 0 0 0 0 0
0 0 0 0 0 0 0 0 0 0 0 0 0 0 0 0 0 0 0 0 0 0 0 0 0 0 0 0 0 0 0 0 0 0 0 0 0 0 0 0 0 0 0
0 0 0 0 0 0 0 0 0 0 0 0 0 0 0 0 0 0 0 0 0 0 0 0 0 0 0 0 0 0 0 0 0 0 0 0 0 0 0 0 0 0 0
0 0 0 0 0 0 0 0 0 0 0 0 0 0 0 0 0 0 0 0 0 0 0 0 0 0 0 0 0 0 0 0 0 0 0 0 0 0 0 0 0 0 0
0 0 0 0 0 0 0 0 0 0 0 0 0 0 0 0 0 0 0 0 0 0 0 0 0 0 0 0 0 0 0 0 0 0 0 0 0 0 0 0 0 0 0
0 0 0 0 0 0 0 0 0 0 0 0 0 0 0 0 0 0 0 0 0 0 0 0 0 0 0 0 0 0 0 0 0 0 0 0 0 0 0 0 0 0 0
0 0 0 0 0 0 0 0 0 0 0 0 0 0 0 0 0 0 0 0 0 0 0 0 0 0 0 0 0 0 0 0 0 0 0 0 0 0 0 0 0 0 0
0 0 0 0 0 0 0 0 0 0 0 0 0 0 0 0 0 0 0 0 0 0 0 0 0 0 0 0 0 0 0 0 0 0 0 0 0 0 0 0 0 0 0
0 0 0 0 0 0 0 0 0 0 0 0 0 0 0 0 0 0 0 0 0 0 0 0 0 0 0 0 0 0 0 0 0 0 0 0 0 0 0 0 0 0 0

GEFSMW_con_probscp_138.txt.gz
Probability
3 3 4 6 7 6 5 5 6 9 10 10 12 15 15 11 9 8 8 9 10 11 12 11 10 10 9 8 7 6 6 6 7 8 7 6 5 4 6 7 8 8 9
4 5 6 6 6 6 5 4 5 8 9 9 9 10 10 9 7 8 9 9 9 9 9 9 9 8 6 5 4 4 4 4 6 8 8 6 5 5 5 5 6 8 9
5 6 7 7 6 5 5 4 5 6 7 7 5 5 5 5 5 7 8 8 8 7 7 7 6 5 3 2 2 2 2 2 4 6 7 7 7 6 5 4 5 7 7
9 9 9 7 6 6 5 5 5 5 5 4 4 3 2 2 3 4 4 5 5 5 5 6 5 4 2 1 1 1 0 1 2 3 4 5 7 7 5 3 4 5 6
13 12 9 7 6 6 5 4 4 3 3 3 3 3 2 2 3 2 1 2 2 3 3 4 4 3 3 2 2 1 0 0 0 1 1 2 4 5 4 2 2 4 5
16 13 9 7 6 6 6 4 3 3 3 3 4 4 4 4 4 2 0 1 2 2 3 3 3 4 4 3 2 1 0 0 0 0 0 1 1 2 2 2 2 3 3
16 14 10 7 6 6 5 4 3 3 3 3 3 4 4 5 4 2 0 1 1 2 2 2 2 3 3 2 1 1 0 0 0 0 0 0 0 1 2 3 4 3 2
13 12 10 7 5 4 4 3 3 3 3 3 3 4 4 4 3 2 1 0 0 0 1 1 1 1 1 0 0 0 0 0 0 0 0 0 0 1 3 4 4 3 1
10 10 8 5 3 2 3 3 3 3 3 3 3 3 3 3 2 2 1 0 0 0 0 0 0 0 0 0 0 0 0 0 0 0 0 0 0 1 2 3 3 2 1
9 7 4 2 1 1 1 2 3 3 3 3 2 1 1 1 1 1 0 0 0 0 0 0 0 0 0 0 0 0 0 0 0 0 0 0 0 1 1 1 1 1 0
7 4 1 0 0 0 0 1 2 2 2 1 1 0 0 0 0 0 0 0 0 0 0 0 0 0 0 0 0 0 0 0 0 0 0 0 0 0 0 0 0 0 0
5 2 0 0 0 0 0 0 1 1 1 0 0 0 0 0 0 0 0 0 0 0 0 0 0 0 0 0 0 0 0 0 0 0 0 0 0 0 0 0 0 0 0
3 2 0 0 0 0 0 0 0 0 0 0 0 0 0 0 0 0 0 0 0 0 0 0 0 0 0 0 0 0 0 0 0 0 0 0 0 0 0 0 0 0 0
1 1 0 0 0 0 0 0 0 0 0 0 0 0 0 0 0 0 0 0 0 0 0 0 0 0 0 0 0 0 0 0 0 0 0 0 0 0 0 0 0 0 0
0 0 0 0 0 0 0 0 0 0 0 0 0 0 0 0 0 0 0 0 0 0 0 0 0 0 0 0 0 0 0 0 0 0 0 0 0 0 0 0 0 0 0
0 0 0 0 0 0 0 0 0 0 0 0 0 0 0 0 0 0 0 0 0 0 0 0 0 0 0 0 0 0 0 0 0 0 0 0 0 0 0 0 0 0 0
0 0 0 0 0 0 0 0 0 0 0 0 0 0 0 0 0 0 0 0 0 0 0 0 0 0 0 0 0 0 0 0 0 0 0 0 0 0 0 0 0 0 0
0 0 0 0 0 0 0 0 0 0 0 0 0 0 0 0 0 0 0 0 0 0 0 0 0 0 0 0 0 0 0 0 0 0 0 0 0 0 0 0 0 0 0
0 0 0 0 0 0 0 0 0 0 0 0 0 0 0 0 0 0 0 0 0 0 0 0 0 0 0 0 0 0 0 0 0 0 0 0 0 0 0 0 0 0 0
0 0 0 0 0 0 0 0 0 0 0 0 0 0 0 0 0 0 0 0 0 0 0 0 0 0 0 0 0 0 0 0 0 0 0 0 0 0 0 0 0 0 0
0 0 0 0 0 0 0 0 0 0 0 0 0 0 0 0 0 0 0 0 0 0 0 0 0 0 0 0 0 0 0 0 0 0 0 0 0 0 0 0 0 0 0
0 0 0 0 0 0 0 0 0 0 0 0 0 0 0 0 0 0 0 0 0 0 0 0 0 0 0 0 0 0 0 0 0 0 0 0 0 0 0 0 0 0 0
0 0 0 0 0 0 0 0 0 0 0 0 0 0 0 0 0 0 0 0 0 0 0 0 0 0 0 0 0 0 0 0 0 0 0 0 0 0 0 0 0 0 0
0 0 0 0 0 0 0 0 0 0 0 0 0 0 0 0 0 0 0 0 0 0 0 0 0 0 0 0 0 0 0 0 0 0 0 0 0 0 0 0 0 0 0
0 0 0 0 0 0 0 0 0 0 0 0 0 0 0 0 0 0 0 0 0 0 0 0 0 0 0 0 0 0 0 0 0 0 0 0 0 0 0 0 0 0 0
0 0 0 0 0 0 0 0 0 0 0 0 0 0 0 0 0 0 0 0 0 0 0 0 0 0 0 0 0 0 0 0 0 0 0 0 0 0 0 0 0 0 0

GEFSMW_con_probscp_144.txt.gz
Probability
24 23 20 19 18 19 22 21 20 20 21 21 20 19 19 18 17 17 17 18 16 13 10 7 7 9 11 13 12 11 12 12 11 11 12 16 20 20 20 19 16 14 14
24 23 21 20 20 20 21 19 17 18 20 22 21 19 17 15 12 11 12 13 13 11 8 5 5 7 10 12 10 9 8 7 8 8 9 11 12 12 13 15 12 10 10
27 25 23 22 20 19 18 16 14 15 18 20 19 16 14 11 7 4 5 6 6 6 5 3 3 5 7 9 8 7 4 3 3 4 5 5 5 4 7 9 8 6 6
31 29 26 23 18 16 14 13 13 15 17 17 15 12 9 7 4 3 2 2 2 2 2 2 3 4 5 6 7 5 3 2 2 3 4 4 3 2 3 5 5 4 5
36 33 28 23 16 12 12 12 13 14 16 15 12 8 6 4 4 5 4 2 1 0 0 1 2 4 4 5 6 3 2 3 3 3 3 3 2 1 1 2 2 3 4
38 33 27 20 14 11 11 11 12 12 13 12 10 7 4 4 5 6 5 4 2 1 0 1 2 3 3 4 4 3 2 3 3 3 3 3 3 1 0 0 0 1 2
34 30 24 17 12 11 11 10 10 10 10 9 8 6 5 5 6 6 6 4 3 1 0 0 1 1 2 2 2 2 2 2 2 2 3 3 3 2 1 0 0 0 0
28 26 21 16 12 10 10 10 9 9 8 7 6 6 7 7 7 6 6 5 3 1 0 0 0 0 1 1 1 1 0 1 1 1 1 2 3 2 1 0 0 0 0
24 22 18 14 12 10 9 9 8 7 6 6 6 6 6 7 7 6 4 4 3 1 0 0 0 0 0 0 0 0 0 0 0 0 0 1 2 2 1 0 0 0 0
19 17 15 13 11 9 8 7 6 4 3 4 5 4 4 5 5 4 3 3 2 1 0 0 0 0 0 0 0 0 0 0 0 0 0 0 1 1 1 0 0 0 0
16 15 13 11 8 5 4 3 3 1 1 2 3 3 3 3 3 3 2 1 1 0 0 0 0 0 0 0 0 0 0 0 0 0 0 0 1 2 1 0 0 0 0
14 12 10 8 4 2 1 1 1 0 0 1 2 3 3 3 2 1 1 0 0 0 0 0 0 0 0 0 0 0 0 0 0 0 0 0 1 1 1 0 0 0 0
9 8 6 3 1 0 0 0 0 0 0 1 1 1 1 2 1 0 0 0 0 0 0 0 0 0 0 0 0 0 0 0 0 0 0 0 0 0 0 0 0 0 0
6 5 2 1 0 0 0 0 0 0 0 0 0 0 0 0 0 0 0 0 0 0 0 0 0 0 0 0 0 0 0 0 0 0 0 0 0 0 0 0 0 0 0
6 4 2 0 0 0 0 0 0 0 0 0 0 0 0 0 0 0 0 0 0 0 0 0 0 0 0 0 0 0 0 0 0 0 1 0 0 0 0 0 0 0 0
5 3 1 0 0 0 0 0 0 0 0 0 0 0 0 0 0 0 0 0 0 0 0 0 0 0 0 0 0 0 0 0 0 0 0 0 0 0 0 0 0 0 0
4 3 1 0 0 0 0 0 0 0 0 0 0 0 0 0 0 0 0 0 0 0 0 0 0 0 0 0 0 0 0 0 0 0 0 0 0 0 0 0 0 0 0
3 2 1 0 0 0 0 0 0 0 0 0 0 0 0 0 0 0 0 0 0 0 0 0 0 0 0 0 0 0 0 0 0 0 0 0 0 0 0 0 0 0 0
4 3 1 0 0 0 0 0 0 0 0 0 0 0 0 0 0 0 0 0 0 0 0 0 0 0 0 0 0 0 0 0 0 0 0 0 0 0 0 0 0 0 0
6 4 1 0 0 0 0 0 0 0 0 0 0 0 0 0 0 0 0 0 0 0 0 0 0 0 0 0 0 0 0 0 0 0 0 0 0 0 0 0 0 0 0
6 4 2 1 0 0 0 0 0 0 0 0 0 0 0 0 0 0 0 0 0 0 0 0 0 0 0 0 0 0 0 0 0 0 0 0 0 0 0 0 0 0 0
4 3 2 1 0 0 0 0 0 0 0 0 0 0 0 0 0 0 0 0 0 0 0 0 0 0 0 0 0 0 0 0 0 0 0 0 0 0 0 0 0 0 0
2 1 1 0 0 0 0 0 0 0 0 0 0 0 0 0 0 0 0 0 0 0 0 0 0 0 0 0 0 0 0 0 0 0 0 0 0 0 0 0 0 0 0
1 0 0 0 0 0 0 0 0 0 0 0 0 0 0 0 0 0 0 0 0 0 0 0 0 0 0 0 0 0 0 0 0 0 0 0 0 0 0 0 0 0 0
2 1 0 0 0 0 0 0 0 0 0 0 0 0 0 0 0 0 0 0 0 0 0 0 0 0 0 0 0 0 0 0 0 0 0 0 0 0 0 0 0 0 0
2 1 0 0 0 0 0 0 0 0 0 0 0 0 0 0 0 0 0 0 0 0 0 0 0 0 0 0 0 0 0 0 0 0 0 0 0 0 0 0 0 0 0

GEFSMW_con_probscp_150.txt.gz
Probability
20 19 17 15 12 9 7 5 2 1 1 3 4 4 5 5 4 3 3 4 4 4 3 2 2 3 3 3 3 3 2 1 0 0 0 0 0 0 0 0 0 0 0
21 18 17 15 13 9 6 4 2 0 0 2 3 3 3 4 3 3 2 2 2 3 2 1 1 2 2 2 2 3 2 1 0 0 0 0 0 0 0 0 0 0 0
20 18 17 15 11 8 6 4 3 1 0 0 1 1 1 2 2 1 1 0 0 1 1 0 0 0 0 1 1 1 1 1 0 0 0 0 0 0 0 0 0 0 0
18 17 15 13 10 8 6 4 3 2 1 0 0 0 0 1 1 0 0 0 0 0 0 0 0 0 0 0 0 0 0 0 0 0 0 0 0 0 0 0 0 0 0
15 14 13 12 10 8 6 4 3 3 1 0 0 0 0 0 1 1 1 0 0 0 0 0 0 0 0 0 0 0 0 0 0 0 0 0 0 0 0 0 0 0 0
14 13 13 12 11 9 6 5 4 3 2 1 0 0 0 1 3 4 3 1 0 0 0 0 0 0 0 0 0 0 0 0 0 0 0 0 0 0 0 0 0 0 0
15 16 15 14 12 9 6 5 4 3 3 2 1 0 0 1 4 5 4 2 1 0 0 0 0 0 0 0 0 0 0 0 0 0 0 0 0 0 0 0 0 0 0
16 15 14 12 11 9 6 5 4 3 3 3 2 1 0 1 4 5 5 3 2 1 0 0 0 0 0 0 0 0 0 0 0 0 0 0 0 0 0 0 0 0 0
14 12 10 10 8 7 5 3 3 2 2 2 2 2 2 2 3 4 4 3 2 1 0 0 0 0 0 0 0 0 0 0 0 0 0 0 0 0 0 0 0 0 0
11 9 7 7 6 4 3 1 1 1 1 1 1 2 2 3 3 3 3 3 2 1 0 0 0 0 0 0 0 0 0 0 0 0 0 0 0 0 0 0 0 0 0
9 7 6 5 4 3 2 1 0 0 0 0 0 1 1 2 3 3 3 3 2 1 0 0 0 0 0 0 0 0 0 0 0 0 0 0 0 0 0 0 0 0 0
7 6 5 5 4 3 2 1 0 0 0 0 0 0 0 1 3 3 3 2 1 0 0 0 0 0 0 0 0 0 0 0 0 0 0 0 0 0 0 0 0 0 0
6 5 4 4 3 3 1 0 0 0 0 0 0 0 0 1 2 2 1 1 0 0 0 0 0 0 0 0 0 0 0 0 0 0 0 0 0 0 0 0 0 0 0
5 4 3 3 3 2 1 0 0 0 0 0 0 0 0 0 1 1 0 0 0 0 0 0 0 0 0 0 0 0 0 0 0 0 0 0 0 0 0 0 0 0 0
4 3 3 3 2 1 0 0 0 0 0 0 0 0 0 0 0 0 0 0 0 0 0 0 0 0 0 0 0 0 0 0 0 0 0 0 0 0 0 0 0 0 0
3 3 3 2 1 0 0 0 0 0 0 0 0 0 0 0 0 0 0 0 0 0 0 0 0 0 0 0 0 0 0 0 0 0 0 0 0 0 0 0 0 0 0
2 2 2 1 0 0 0 0 0 0 0 0 0 0 0 0 0 0 0 0 0 0 0 0 0 0 0 0 0 0 0 0 0 0 0 0 0 0 0 0 0 0 0
1 1 1 0 0 0 0 0 0 0 0 0 0 0 0 0 0 0 0 0 0 0 0 0 0 0 0 0 0 0 0 0 0 0 0 0 0 0 0 0 0 0 0
0 0 0 0 0 0 0 0 0 0 0 0 0 0 0 0 0 0 0 0 0 0 0 0 0 0 0 0 0 0 0 0 0 0 0 0 0 0 0 0 0 0 0
0 0 0 0 0 0 0 0 0 0 0 0 0 0 0 0 0 0 0 0 0 0 0 0 0 0 0 0 0 0 0 0 0 0 0 0 0 0 0 0 0 0 0
0 0 0 0 0 0 0 0 0 0 0 0 0 0 0 0 0 0 0 0 0 0 0 0 0 0 0 0 0 0 0 0 0 0 0 0 0 0 0 0 0 0 0
0 0 0 0 0 0 0 0 0 0 0 0 0 0 0 0 0 0 0 0 0 0 0 0 0 0 0 0 0 0 0 0 0 0 0 0 0 0 0 0 0 0 0
0 0 0 0 0 0 0 0 0 0 0 0 0 0 0 0 0 0 0 0 0 0 0 0 0 0 0 0 0 0 0 0 0 0 0 0 0 0 0 0 0 0 0
0 0 0 0 0 0 0 0 0 0 0 0 0 0 0 0 0 0 0 0 0 0 0 0 0 0 0 0 0 0 0 0 0 0 0 0 0 0 0 0 0 0 0
0 0 0 0 0 0 0 0 0 0 0 0 0 0 0 0 0 0 0 0 0 0 0 0 0 0 0 0 0 0 0 0 0 0 0 0 0 0 0 0 0 0 0
0 0 0 0 0 0 0 0 0 0 0 0 0 0 0 0 0 0 0 0 0 0 0 0 0 0 0 0 0 0 0 0 0 0 0 0 0 0 0 0 0 0 0

GEFSMW_con_probscp_156.txt.gz
Probability
12 11 10 10 8 6 6 5 4 2 0 0 0 0 0 0 0 1 2 2 3 2 2 1 1 1 0 1 1 1 0 0 0 0 0 0 0 0 0 0 0 0 0
13 11 10 8 7 6 6 5 4 2 0 0 0 0 0 0 0 0 1 1 2 1 1 0 0 0 0 0 1 1 0 0 0 0 0 0 0 0 0 0 0 0 0
13 12 9 6 5 6 6 4 3 2 1 1 1 0 0 0 0 0 0 0 0 0 0 0 0 0 0 0 0 0 0 0 0 0 0 0 0 0 0 0 0 0 0
14 13 10 7 6 7 6 4 2 2 2 2 2 1 0 0 0 0 0 0 0 0 0 0 0 0 0 0 0 0 0 0 0 0 0 0 0 0 0 0 0 0 0
15 14 11 8 7 7 6 3 2 2 3 3 2 1 0 0 0 0 0 0 0 0 0 0 0 0 0 0 0 0 0 0 0 0 0 0 0 0 0 0 0 0 0
15 13 9 7 6 5 4 2 1 1 2 2 2 1 0 0 0 0 0 0 0 0 0 0 0 0 0 0 0 0 0 0 0 0 0 0 0 0 0 0 0 0 0
14 11 6 3 3 2 2 1 0 0 1 1 1 0 0 0 0 0 0 0 0 0 0 0 0 0 0 0 0 0 0 0 0 0 0 0 0 0 0 0 0 0 0
13 8 4 1 1 1 1 0 0 0 0 0 0 0 0 0 0 0 0 0 0 0 0 0 0 0 0 0 0 0 0 0 0 0 0 0 0 0 0 0 0 0 0
10 7 2 0 0 0 0 0 0 0 0 0 0 0 0 0 0 0 0 0 0 0 0 0 0 0 0 0 0 0 0 0 0 0 0 0 0 0 0 0 0 0 0
7 6 3 1 1 1 1 0 0 0 0 0 0 0 0 0 0 0 0 0 0 0 0 0 0 0 0 0 0 0 0 0 0 0 0 0 0 0 0 0 0 0 0
6 6 4 3 3 3 3 1 0 0 0 0 0 0 0 0 0 0 0 0 0 0 0 0 0 0 0 0 0 0 0 0 0 0 0 0 0 0 0 0 0 0 0
6 6 5 5 5 6 5 3 1 0 0 0 0 0 0 0 0 0 0 0 0 0 0 0 0 0 0 0 0 0 0 0 0 0 0 0 0 0 0 0 0 0 0
5 6 6 6 6 6 6 3 1 0 0 0 0 0 0 0 0 0 0 0 0 0 0 0 0 0 0 0 0 0 0 0 0 0 0 0 0 0 0 0 0 0 0
4 6 6 6 6 6 6 3 1 0 0 0 0 0 0 0 0 0 0 0 0 0 0 0 0 0 0 0 0 0 0 0 0 0 0 0 0 0 0 0 0 0 0
4 6 6 6 6 6 5 2 1 0 0 0 0 0 0 0 0 0 0 0 0 0 0 0 0 0 0 0 0 0 0 0 0 0 0 0 0 0 0 0 0 0 0
5 5 6 6 6 5 2 1 0 0 0 0 0 0 0 0 0 0 0 0 0 0 0 0 0 0 0 0 0 0 0 0 0 0 0 0 0 0 0 0 0 0 0
4 4 5 5 5 3 1 0 0 0 0 0 0 0 0 0 0 0 0 0 0 0 0 0 0 0 0 0 0 0 0 0 0 0 0 0 0 0 0 0 0 0 0
2 2 3 3 2 1 0 0 0 0 0 0 0 0 0 0 0 0 0 0 0 0 0 0 0 0 0 0 0 0 0 0 0 0 0 0 0 0 0 0 0 0 0
0 1 1 1 1 0 0 0 0 0 0 0 0 0 0 0 0 0 0 0 0 0 0 0 0 0 0 0 0 0 0 0 0 0 0 0 0 0 0 0 0 0 0
0 0 0 0 0 0 0 0 0 0 0 0 0 0 0 0 0 0 0 0 0 0 0 0 0 0 0 0 0 0 0 0 0 0 0 0 0 0 0 0 0 0 0
0 0 0 0 0 0 0 0 0 0 0 0 0 0 0 0 0 0 0 0 0 0 0 0 0 0 0 0 0 0 0 0 0 0 0 0 0 0 0 0 0 0 0
0 0 0 0 0 0 0 0 0 0 0 0 0 0 0 0 0 0 0 0 0 0 0 0 0 0 0 0 0 0 0 0 0 0 0 0 0 0 0 0 0 0 0
0 0 0 0 0 0 0 0 0 0 0 0 0 0 0 0 0 0 0 0 0 0 0 0 0 0 0 0 0 0 0 0 0 0 0 0 0 0 0 0 0 0 0
0 0 0 0 0 0 0 0 0 0 0 0 0 0 0 0 0 0 0 0 0 0 0 0 0 0 0 0 0 0 0 0 0 0 0 0 0 0 0 0 0 0 0
0 0 0 0 0 0 0 0 0 0 0 0 0 0 0 0 0 0 0 0 0 0 0 0 0 0 0 0 0 0 0 0 0 0 0 0 0 0 0 0 0 0 0
0 0 0 0 0 0 0 0 0 0 0 0 0 0 0 0 0 0 0 0 0 0 0 0 0 0 0 0 0 0 0 0 0 0 0 0 0 0 0 0 0 0 0

GEFSMW_con_probscp_162.txt.gz
Probability
20 18 17 17 18 17 16 16 17 18 17 16 16 13 9 7 6 3 2 2 3 5 8 11 12 13 14 13 12 12 12 12 13 13 11 7 6 7 8 8 9 8 7
20 18 17 18 19 19 17 16 16 15 15 15 14 12 9 7 4 2 1 1 1 2 5 8 9 10 10 10 10 10 11 11 13 14 12 8 7 7 7 7 7 6 6
21 19 18 18 19 18 17 16 15 13 12 12 11 11 10 8 5 3 1 0 0 0 2 4 5 5 6 6 7 8 8 9 11 12 11 9 9 8 6 5 4 4 4
23 21 19 16 15 16 16 16 14 12 11 10 9 9 10 9 6 4 2 1 0 0 1 1 3 3 4 4 4 5 5 6 8 8 7 9 10 8 5 3 3 3 3
24 23 20 15 13 14 15 15 13 11 9 8 8 8 9 8 6 4 3 1 0 0 0 1 2 2 2 3 3 3 3 4 5 4 3 5 7 6 3 2 3 3 3
24 24 22 18 15 14 13 13 12 10 7 6 5 5 6 6 4 3 2 1 1 1 0 0 1 2 2 2 2 1 1 3 4 3 2 2 3 3 2 1 2 3 3
20 22 23 21 18 14 12 11 9 7 5 5 4 3 3 3 2 1 1 1 1 1 0 0 1 2 2 1 1 0 0 1 2 2 1 1 1 2 2 1 1 2 2
15 18 20 21 19 15 12 9 6 5 6 6 6 4 3 2 2 1 0 0 1 1 0 0 1 1 1 1 0 0 0 0 1 1 1 1 1 1 2 2 1 1 1
14 15 16 17 16 14 11 7 5 5 6 7 8 6 4 3 2 1 0 0 1 0 0 0 0 0 0 0 0 0 0 0 0 0 1 1 0 1 2 2 1 0 0
14 13 12 12 13 14 12 9 7 7 7 8 8 6 5 4 3 2 1 1 1 0 0 0 0 0 0 0 0 0 0 0 0 0 0 0 0 0 1 2 1 1 0
11 10 8 9 11 13 14 11 9 9 8 9 8 6 5 5 3 3 2 1 0 0 0 0 0 0 0 0 0 0 0 0 0 0 0 0 0 0 1 2 2 2 1
7 7 7 8 9 11 11 10 9 9 8 8 8 6 5 4 3 3 2 1 0 0 0 0 0 0 0 0 0 0 0 0 0 0 0 0 0 0 1 1 1 1 1
6 7 8 9 8 8 7 7 8 7 5 5 5 4 4 3 3 2 1 0 0 0 0 0 0 0 0 0 0 0 0 0 0 0 0 0 0 0 1 0 0 0 0
6 7 9 9 8 7 6 6 6 5 3 2 3 3 3 3 2 1 0 0 0 0 0 0 0 0 0 0 0 0 0 0 0 0 0 0 0 0 0 0 0 0 0
6 7 9 9 8 7 7 7 5 4 3 3 3 3 3 2 1 0 0 0 0 0 0 0 0 0 0 0 0 0 0 0 0 0 0 0 0 0 0 0 0 0 0
6 7 8 9 8 7 7 6 4 3 3 3 2 2 1 1 0 0 0 0 0 0 0 0 0 0 0 0 0 0 0 0 0 0 0 0 0 0 0 0 0 0 0
5 6 8 7 6 7 7 5 3 3 3 1 1 1 0 0 0 0 0 0 0 0 0 0 0 0 0 0 0 0 0 0 0 0 0 0 0 0 0 0 0 0 0
3 5 8 8 7 7 6 4 3 3 2 1 0 0 0 0 0 0 0 0 0 0 0 0 0 0 0 0 0 0 0 0 0 0 0 0 0 0 0 0 0 0 0
2 4 7 8 8 6 5 3 2 2 1 0 0 0 0 0 0 0 0 0 0 0 0 0 0 0 0 0 0 0 0 0 0 0 0 0 0 0 0 0 0 0 0
2 3 5 6 7 5 3 1 1 1 0 0 0 0 0 0 0 0 0 0 0 0 0 0 0 0 0 0 0 0 0 0 0 0 0 0 0 0 0 0 0 0 0
3 3 3 5 5 4 1 0 0 0 0 0 0 0 0 0 0 0 0 0 0 0 0 0 0 0 0 0 0 0 0 0 0 0 0 0 0 0 0 0 0 0 0
3 3 3 4 3 2 0 0 0 0 0 0 0 0 0 0 0 0 0 0 0 0 0 0 0 0 0 0 0 0 0 0 0 0 0 0 0 0 0 0 0 0 0
3 3 3 3 2 1 0 0 0 0 0 0 0 0 0 0 0 0 0 0 0 0 0 0 0 0 0 0 0 0 0 0 0 0 0 0 0 0 0 0 0 0 0
1 2 2 1 1 0 0 0 0 0 0 0 0 0 0 0 0 0 0 0 0 0 0 0 0 0 0 0 0 0 0 0 0 0 0 0 0 0 0 0 0 0 0
0 1 1 0 0 0 0 0 0 0 0 0 0 0 0 0 0 0 0 0 0 0 0 0 0 0 0 0 0 0 0 0 0 0 0 0 0 0 0 0 0 0 0
0 0 0 0 0 0 0 0 0 0 0 0 0 0 0 0 0 0 0 0 0 0 0 0 0 0 0 0 0 0 0 0 0 0 0 0 0 0 0 0 0 0 0

GEFSMW_con_probscp_168.txt.gz
Probability
43 45 49 53 56 57 56 53 49 47 44 41 38 36 32 27 24 21 18 16 14 11 8 7 9 10 11 11 9 6 7 9 8 7 4 3 4 6 9 12 11 10 10
38 41 45 50 53 54 52 49 45 45 45 41 38 36 31 25 21 18 15 13 11 10 8 8 7 7 9 9 7 5 6 7 7 6 4 3 3 4 7 9 9 9 10
35 38 42 46 48 48 46 42 40 41 42 39 35 32 27 22 19 16 12 10 8 8 8 8 6 5 7 8 6 4 3 3 4 4 4 4 3 2 4 5 6 7 9
33 35 40 43 44 43 41 40 39 37 35 32 29 25 21 18 17 15 11 9 7 5 5 5 5 5 7 8 6 3 1 1 2 2 2 4 3 2 1 2 3 5 6
30 32 37 40 41 40 39 39 38 33 27 24 23 20 16 15 15 12 10 8 5 2 1 2 3 4 6 6 5 4 2 2 2 1 1 2 2 2 1 1 1 2 2
30 33 37 39 38 36 36 35 33 28 22 18 17 16 15 15 13 10 7 6 3 1 0 0 1 3 5 6 6 5 5 5 4 2 0 0 1 1 0 0 0 0 0
31 34 38 37 35 33 32 30 27 23 19 16 15 15 15 14 13 9 6 4 2 1 0 1 1 3 5 5 6 5 5 6 6 4 1 0 0 0 0 0 0 0 0
30 34 36 35 33 30 28 26 23 20 18 16 15 15 15 14 12 10 6 3 2 1 1 2 3 4 4 4 5 5 5 6 6 5 3 1 0 0 0 0 0 0 0
28 31 33 32 29 26 24 21 20 19 18 17 16 15 15 13 12 9 6 4 3 3 3 3 4 4 4 4 5 5 5 4 5 5 4 2 1 1 1 0 0 0 0
27 29 31 29 26 23 21 19 18 19 18 17 16 16 15 14 12 10 7 6 5 4 3 3 3 4 3 4 5 5 4 3 4 4 4 2 1 2 2 1 1 0 0
29 30 30 26 22 20 19 18 18 19 18 17 16 16 15 15 13 11 8 7 6 4 3 3 3 3 3 3 3 4 3 3 3 3 2 1 1 2 3 2 1 0 0
27 28 26 22 18 17 17 18 18 18 17 15 15 15 14 14 12 10 8 7 6 5 4 3 3 3 2 1 1 2 2 2 2 2 1 0 1 2 2 2 1 0 0
22 22 21 18 16 15 16 16 16 16 14 12 12 13 13 12 9 8 7 6 5 4 3 3 2 1 1 0 0 1 1 0 1 1 0 0 0 1 1 1 0 0 0
16 17 16 15 14 13 14 14 14 13 11 10 11 12 11 9 6 5 5 4 4 3 3 2 1 0 0 0 0 0 0 0 0 0 0 0 0 0 0 0 0 0 0
13 13 14 14 13 13 13 13 12 11 10 10 10 11 9 6 4 4 4 3 3 2 1 1 0 0 0 0 0 0 0 0 0 0 0 0 0 0 0 0 0 0 0
11 12 13 14 13 13 13 12 11 10 10 10 10 10 8 5 3 3 2 2 1 1 0 0 0 0 0 0 0 0 0 0 0 0 0 0 0 0 0 0 0 0 0
8 10 13 13 13 13 12 12 10 10 10 10 9 9 7 4 2 1 1 1 0 0 0 0 0 0 0 0 0 0 0 0 0 0 0 0 0 0 0 0 0 0 0
6 8 10 11 11 11 11 11 10 10 10 9 9 7 5 2 1 0 0 0 0 0 0 0 0 0 0 0 0 0 0 0 0 0 0 0 0 0 0 0 0 0 0
6 7 8 7 8 9 10 10 10 9 9 8 7 5 3 1 0 0 0 0 0 0 1 0 0 0 0 0 0 0 0 0 0 0 0 0 0 0 0 0 0 0 0
9 8 7 5 6 8 9 9 8 8 7 6 4 3 1 0 0 0 1 1 1 1 1 0 0 0 0 0 0 0 0 0 0 0 0 0 0 0 0 0 0 0 0
8 7 5 4 5 6 7 6 5 5 4 3 2 1 0 0 0 0 1 2 2 2 1 0 0 0 0 0 0 0 0 0 0 0 0 0 0 0 0 0 0 0 0
4 4 3 3 4 5 6 5 3 3 3 1 1 0 0 0 0 0 1 2 3 2 1 0 0 0 0 0 0 0 0 0 0 0 0 0 0 0 0 0 0 0 0
2 2 2 2 3 5 5 4 3 2 2 1 0 0 0 0 0 0 0 1 2 1 1 0 0 0 0 0 0 0 0 0 0 0 0 0 0 0 0 0 0 0 0
2 2 2 3 3 4 4 2 1 1 1 0 0 0 0 0 0 0 0 0 0 0 0 0 0 0 0 0 0 0 0 0 0 0 0 0 0 0 0 0 0 0 0
3 3 2 2 3 3 2 1 0 0 0 0 0 0 0 0 0 0 0 0 0 0 0 0 0 0 0 0 0 0 0 0 0 0 0 0 0 0 0 0 0 0 0
3 3 2 1 2 3 2 1 0 0 0 0 0 0 0 0 0 0 0 0 0 0 0 0 0 0 0 0 0 0 0 0 0 0 0 0 0 0 0 0 0 0 0

GEFSMW_con_probscp_174.txt.gz
Probability
24 27 32 33 32 28 26 26 26 24 19 14 11 10 9 7 6 5 4 4 6 5 4 2 1 0 0 0 0 0 0 0 0 0 0 0 0 0 0 0 0 0 0
25 28 31 32 31 29 26 24 23 21 16 12 11 10 8 7 5 4 3 4 4 3 3 2 1 0 0 0 0 0 0 0 0 0 0 0 0 0 0 0 0 0 0
25 27 30 31 30 28 25 22 18 14 11 11 11 10 8 6 4 3 3 3 2 1 1 1 0 0 0 0 0 0 0 0 0 0 0 0 0 0 0 0 0 0 0
25 26 28 29 29 27 24 20 15 10 9 10 11 10 7 5 4 3 3 1 1 0 0 0 0 0 0 0 0 0 0 0 0 0 0 0 0 0 0 0 0 0 0
24 24 25 27 27 25 23 18 14 10 8 9 11 9 6 3 2 2 2 1 0 0 0 0 0 0 0 0 0 0 0 0 0 0 0 0 0 0 0 0 0 0 0
23 21 22 25 25 23 20 16 14 11 9 8 9 7 5 2 1 1 1 0 0 0 0 0 0 0 0 0 0 0 0 0 0 0 0 0 0 0 0 0 0 0 0
23 19 19 21 21 19 16 14 14 12 8 6 6 4 3 2 1 0 0 0 0 0 0 0 0 0 0 0 0 0 0 0 0 0 0 0 0 0 0 0 0 0 0
20 17 15 16 15 13 12 12 13 11 8 5 3 1 1 1 1 0 0 0 0 0 0 0 0 0 0 0 0 0 0 0 0 0 0 0 0 0 0 0 0 0 0
17 15 14 12 11 10 10 10 11 10 8 5 2 0 0 0 0 0 0 0 0 0 0 0 0 0 0 0 0 0 0 0 0 0 0 0 0 0 0 0 0 0 0
16 16 15 12 10 9 9 10 9 9 8 6 3 1 0 0 0 0 0 0 0 0 0 0 0 0 0 0 0 0 0 0 0 0 0 0 0 0 0 0 0 0 0
14 15 14 12 9 8 9 10 9 8 7 6 5 3 1 0 0 0 0 0 0 0 0 0 0 0 0 0 0 0 0 0 0 0 0 0 0 0 0 0 0 0 0
11 11 11 9 8 8 9 10 9 8 7 6 5 4 2 1 0 0 0 0 0 0 0 1 1 0 0 0 0 0 0 0 0 0 0 0 0 0 0 0 0 0 0
7 7 7 7 6 7 9 10 9 8 7 5 4 3 2 1 0 0 0 0 0 1 1 1 1 0 0 0 0 0 0 0 0 0 0 0 0 0 0 0 0 0 0
4 4 4 5 5 5 8 9 10 9 6 4 3 3 2 1 0 0 0 1 1 2 2 1 1 0 0 0 0 0 0 0 0 0 0 0 0 0 0 0 0 0 0
1 1 2 3 3 5 7 8 9 8 6 5 4 3 1 0 0 0 0 1 2 2 1 0 0 0 0 0 0 0 0 0 0 0 0 0 0 0 0 0 0 0 0
1 0 1 2 3 5 6 7 7 7 7 6 6 4 1 0 1 1 1 1 1 1 0 0 0 0 0 0 0 0 0 0 0 0 0 0 0 0 0 0 0 0 0
2 1 0 1 3 4 5 6 6 7 7 7 6 5 2 1 2 2 2 1 0 0 0 0 0 0 0 0 0 0 0 0 0 0 0 0 0 0 0 0 0 0 0
2 1 0 1 2 3 4 5 6 6 6 5 5 5 4 4 3 3 2 1 0 0 0 0 0 0 0 0 0 0 0 0 0 0 0 0 0 0 0 0 0 0 0
2 1 0 1 2 3 3 4 5 5 4 3 3 4 5 5 4 2 1 0 0 0 0 0 0 0 0 0 0 0 0 0 0 0 0 0 0 0 0 0 0 0 0
1 0 0 0 1 2 3 4 5 5 3 2 2 3 4 4 3 1 0 0 0 0 0 0 0 0 0 0 0 0 0 0 0 0 0 0 0 0 0 0 0 0 0
0 0 0 0 0 1 3 4 5 4 3 2 3 3 3 2 1 0 0 0 0 0 0 0 0 0 0 0 0 0 0 0 0 0 0 0 0 0 0 0 0 0 0
0 0 0 0 1 1 2 2 3 3 3 3 3 2 1 1 0 0 0 0 0 0 0 0 0 0 0 0 0 0 0 0 0 0 0 0 0 0 0 0 0 0 0
0 0 0 0 1 1 1 1 2 3 3 2 1 1 0 0 0 0 0 0 0 0 0 0 0 0 0 0 0 0 0 0 0 0 0 0 0 0 0 0 0 0 0
0 0 0 0 1 1 0 1 2 3 2 1 0 0 0 0 0 0 0 0 0 0 0 0 0 0 0 0 0 0 0 0 0 0 0 0 0 0 0 0 0 0 0
0 0 0 0 0 0 0 1 2 2 1 0 0 0 0 0 0 0 0 0 0 0 0 0 0 0 0 0 0 0 0 0 0 0 0 0 0 0 0 0 0 0 0
0 0 0 0 0 0 0 0 1 1 0 0 0 0 0 0 0 0 0 0 0 0 0 0 0 0 0 0 0 0 0 0 0 0 0 0 0 0 0 0 0 0 0

GEFSMW_con_probscp_180.txt.gz
Probability
24 23 23 21 18 15 14 16 18 17 14 11 10 9 6 3 2 3 3 2 1 1 3 3 3 2 1 0 0 0 0 0 0 0 0 0 0 0 0 0 0 0 0
22 22 22 20 19 17 14 14 16 16 14 11 9 8 6 3 1 2 2 2 1 1 2 3 3 3 1 0 0 0 0 0 0 0 0 0 0 0 0 0 0 0 0
19 18 18 19 18 17 15 14 13 13 12 10 9 8 7 4 1 1 1 1 0 1 1 2 2 2 1 0 0 0 0 0 0 0 0 0 0 0 0 0 0 0 0
14 14 14 17 18 17 14 13 11 11 11 11 8 7 7 5 1 0 0 0 0 0 0 1 1 1 1 0 0 0 0 0 0 0 0 0 0 0 0 0 0 0 0
8 9 12 15 17 16 13 11 10 11 12 11 8 6 4 3 1 0 0 0 0 0 0 0 0 0 0 0 0 0 0 0 0 0 0 0 0 0 0 0 0 0 0
4 7 11 15 16 15 13 12 11 11 11 11 8 4 2 0 0 0 0 0 0 0 0 0 0 0 0 0 0 0 0 0 0 0 0 0 0 0 0 0 0 0 0
6 8 12 14 15 14 13 13 12 11 11 9 7 3 1 0 0 0 0 0 0 0 0 0 0 0 0 0 0 0 0 0 0 0 0 0 0 0 0 0 0 0 0
8 10 12 13 13 12 12 12 12 11 10 8 6 3 1 0 0 0 0 0 0 0 0 0 0 0 0 0 0 0 0 0 0 0 0 0 0 0 0 0 0 0 0
7 9 11 12 11 10 11 12 11 10 9 8 7 4 1 0 0 0 0 0 0 0 0 0 0 0 0 0 0 0 0 0 0 0 0 0 0 0 0 0 0 0 0
5 7 10 11 8 8 10 11 10 8 6 6 5 3 1 0 0 0 0 0 0 0 0 0 0 0 0 0 0 0 0 0 0 0 0 0 0 0 0 0 0 0 0
4 5 8 8 5 5 8 9 8 6 5 4 4 2 1 0 0 0 0 0 0 0 0 0 0 0 0 0 0 0 0 0 0 0 0 0 0 0 0 0 0 0 0
4 4 5 5 2 2 5 7 6 4 4 4 4 3 2 1 0 0 0 0 0 0 0 0 0 0 0 0 0 0 0 0 0 0 0 0 0 0 0 0 0 0 0
3 3 4 3 1 1 3 4 4 4 3 3 3 3 3 1 0 0 0 0 0 0 0 0 0 0 0 0 0 0 0 0 0 0 0 0 0 0 0 0 0 0 0
3 3 3 1 1 1 2 2 3 3 3 3 2 3 3 2 1 0 0 0 0 0 0 0 0 0 0 0 0 0 0 0 0 0 0 0 0 0 0 0 0 0 0
3 3 2 1 0 1 2 2 2 3 3 2 2 2 3 2 1 0 0 0 0 0 0 0 0 0 0 0 0 0 0 0 0 0 0 0 0 0 0 0 0 0 0
3 3 2 1 0 0 1 1 1 3 3 2 2 3 3 2 1 0 0 0 0 0 0 0 0 0 0 0 0 0 0 0 0 0 0 0 0 0 0 0 0 0 0
2 1 1 0 0 0 0 0 1 2 2 2 2 3 3 1 0 0 0 0 0 0 0 0 0 0 0 0 0 0 0 0 0 0 0 0 0 0 0 0 0 0 0
2 1 0 0 0 1 1 1 1 1 1 2 3 3 2 1 0 0 0 0 0 0 0 0 0 0 0 0 0 0 0 0 0 0 0 0 0 0 0 0 0 0 0
2 1 0 0 0 1 2 2 1 0 0 2 3 3 2 1 1 0 0 0 0 0 0 0 0 0 0 0 0 0 0 0 0 0 0 0 0 0 0 0 0 0 0
1 0 0 0 0 0 1 1 1 0 0 1 2 1 1 0 0 0 0 0 0 0 0 0 0 0 0 0 0 0 0 0 0 0 0 0 0 0 0 0 0 0 0
0 0 0 0 0 0 0 1 0 0 0 1 1 0 0 0 0 0 0 0 0 0 0 0 0 0 0 0 0 0 0 0 0 0 0 0 0 0 0 0 0 0 0
0 0 0 0 0 0 0 1 0 0 0 0 0 0 0 0 0 0 0 0 0 0 0 0 0 0 0 0 0 0 0 0 0 0 0 0 0 0 0 0 0 0 0
0 0 0 0 0 0 0 0 0 0 0 0 0 0 0 0 0 0 0 0 0 0 0 0 0 0 0 0 0 0 0 0 0 0 0 0 0 0 0 0 0 0 0
0 0 0 0 0 0 0 0 0 0 0 0 0 0 0 0 0 0 0 0 0 0 0 0 0 0 0 0 0 0 0 0 0 0 0 0 0 0 0 0 0 0 0
0 0 0 0 0 0 0 0 0 0 0 0 0 0 0 0 0 0 0 0 0 0 0 0 0 0 0 0 0 0 0 0 0 0 0 0 0 0 0 0 0 0 0
0 0 0 0 0 0 0 0 0 0 0 0 0 0 0 0 0 0 0 0 0 0 0 0 0 0 0 0 0 0 0 0 0 0 0 0 0 0 0 0 0 0 0

GEFSMW_con_probscp_186.txt.gz
Probability
19 21 23 26 30 29 29 32 37 39 38 34 33 32 28 22 19 18 20 21 19 16 13 11 9 9 9 7 7 7 5 4 5 5 5 4 2 1 0 1 2 2 1
21 21 21 24 28 30 30 31 36 38 37 35 35 32 28 23 20 20 21 20 18 15 13 10 8 7 7 7 6 6 5 4 4 4 4 3 2 2 1 0 1 1 2
19 18 17 19 25 29 30 30 34 36 35 34 32 29 26 22 21 20 20 19 16 14 11 8 5 3 4 6 5 4 4 2 2 3 3 2 2 2 2 1 0 1 2
15 14 14 16 20 24 26 28 33 35 34 31 29 27 25 22 21 19 17 16 15 13 9 6 4 3 4 4 4 3 3 2 1 1 1 1 2 2 2 1 0 0 1
13 12 13 14 15 18 22 27 31 33 32 31 30 30 27 23 20 18 16 15 14 11 7 5 5 5 3 2 3 3 3 2 1 1 1 1 1 1 1 0 0 0 0
12 11 10 10 12 16 21 27 29 29 30 31 31 31 28 23 19 17 16 14 11 8 6 5 5 4 2 2 2 3 2 1 1 0 0 0 0 0 0 0 0 1 1
11 10 9 9 12 16 20 24 24 24 25 26 27 27 25 21 18 15 14 12 9 6 5 5 4 3 2 2 2 1 1 0 0 0 0 1 1 1 0 0 0 0 0
11 10 10 10 12 16 18 17 15 16 17 18 19 21 22 20 17 14 12 10 7 5 5 4 3 2 1 1 1 0 0 0 0 0 0 1 1 1 0 1 1 1 0
10 11 12 12 13 16 16 13 11 12 12 12 14 17 17 16 14 12 10 8 6 4 3 2 1 1 1 1 1 0 0 0 1 1 0 0 0 0 0 1 2 2 1
8 11 14 14 15 18 17 15 13 12 11 11 12 13 13 11 10 9 8 7 6 4 1 0 0 0 0 1 1 0 0 1 2 2 1 0 0 1 1 2 2 2 1
6 9 11 14 16 19 19 16 14 12 11 11 12 11 10 8 8 7 7 5 4 2 1 0 1 1 1 0 0 0 0 1 2 2 1 0 1 2 2 2 2 1 1
6 7 9 12 15 17 15 12 8 8 9 10 10 10 8 7 7 6 5 4 3 1 0 0 1 2 1 0 0 0 0 1 2 2 1 0 1 2 3 3 3 2 2
6 6 8 11 13 13 9 4 2 3 5 6 7 7 7 7 7 5 4 3 2 1 0 0 1 1 1 0 0 0 0 1 3 2 1 0 1 1 2 3 3 3 3
4 5 7 9 10 9 5 1 0 1 2 3 4 5 6 7 7 5 3 3 3 1 0 0 0 0 0 0 0 0 1 2 3 3 1 0 0 0 1 1 2 3 3
3 3 5 6 7 5 3 1 0 1 3 4 4 4 5 5 4 3 2 3 3 2 1 0 0 0 0 0 0 0 1 3 3 3 2 1 0 0 0 0 1 1 2
3 3 3 3 4 3 2 0 1 2 3 4 3 2 2 2 1 1 2 3 3 2 1 0 0 0 0 0 0 1 2 3 3 3 2 1 0 0 0 0 0 0 1
2 1 1 1 3 3 2 1 1 3 3 3 2 2 1 1 0 1 3 3 3 2 1 0 0 0 0 0 0 1 2 3 3 2 1 0 0 0 0 0 0 0 0
1 0 0 1 2 2 1 1 2 3 3 3 2 2 1 0 0 2 3 3 3 2 1 0 0 0 0 0 0 1 2 3 2 1 0 0 0 0 0 0 0 0 0
0 0 0 0 1 1 0 1 2 3 2 2 2 2 1 1 0 1 2 2 2 1 0 0 0 0 0 0 0 1 1 1 1 0 0 0 0 0 0 0 0 0 0
0 0 0 0 1 1 1 1 1 1 1 1 1 2 2 1 0 0 1 2 2 1 0 0 0 0 0 0 0 0 0 0 0 0 0 0 0 0 0 0 0 0 0
0 0 0 1 2 2 1 0 0 0 0 1 1 2 1 1 0 0 1 2 3 2 0 0 0 0 0 0 0 0 0 0 0 0 0 0 0 0 0 0 0 0 0
0 0 0 1 2 1 0 0 0 0 0 1 2 1 1 1 1 1 1 2 2 1 0 0 0 0 0 0 0 0 0 0 0 0 0 0 0 0 0 0 0 0 0
0 0 0 1 1 1 0 0 0 0 0 1 1 2 2 2 2 2 1 1 1 0 0 0 0 0 0 0 0 0 0 0 0 0 0 0 0 0 0 0 0 0 0
0 0 0 0 0 0 0 0 0 0 0 0 1 2 3 3 3 3 2 0 0 0 0 0 0 0 0 0 0 0 0 0 0 0 0 0 0 0 0 0 0 0 0
0 0 0 0 0 0 0 0 0 0 0 0 1 2 2 2 2 2 1 0 0 0 0 0 0 0 0 0 0 0 0 0 0 0 0 0 0 0 0 0 0 0 0
0 0 0 0 0 0 0 0 0 0 0 0 0 1 2 1 1 1 0 0 0 0 0 0 0 0 0 0 0 0 0 0 0 0 0 0 0 0 0 0 0 0 0

GEFSMW_con_probscp_192.txt.gz
Probability
29 34 40 44 48 53 55 57 58 61 62 61 57 53 45 39 34 33 35 36 34 31 28 28 28 25 23 20 17 14 12 11 11 9 5 5 5 3 2 5 7 6 5
32 36 41 44 48 52 54 54 56 59 61 59 56 50 44 38 35 35 35 36 35 31 27 27 25 24 23 20 16 14 11 9 8 7 5 4 3 2 1 3 4 4 4
31 35 39 43 46 49 51 52 53 56 58 56 52 47 42 37 36 37 37 36 34 30 27 26 25 23 22 18 14 11 9 6 5 4 3 2 2 1 0 1 1 2 3
28 30 33 36 39 41 45 50 52 54 55 54 49 45 40 36 36 38 39 36 31 26 25 28 27 25 22 16 12 9 8 6 4 3 2 2 2 1 0 0 0 1 2
24 25 27 27 28 31 37 45 50 52 54 52 48 44 39 35 35 37 36 32 27 24 25 28 29 25 20 14 10 9 9 8 5 3 2 2 2 1 0 0 0 0 1
20 22 24 24 24 27 33 39 45 49 50 48 45 42 38 34 32 31 28 25 25 26 27 28 26 21 16 13 10 9 10 9 7 4 2 1 1 1 0 0 0 0 0
19 21 24 26 27 31 35 37 42 46 46 43 42 40 38 34 28 25 23 21 22 24 25 25 23 19 15 12 10 10 10 9 7 5 3 1 1 1 0 0 0 0 0
19 21 24 26 28 32 35 37 41 45 44 42 41 39 36 32 26 23 21 18 18 18 19 21 20 18 15 12 11 10 9 8 7 6 4 3 2 2 1 0 0 0 0
19 19 21 22 25 29 31 33 37 41 40 38 37 36 33 30 26 23 19 16 15 15 16 17 17 16 14 11 10 10 8 7 6 5 4 4 4 3 1 0 0 0 0
18 18 18 19 22 24 26 29 32 33 32 31 30 30 30 29 26 20 15 13 13 14 15 16 14 12 11 10 9 8 7 6 5 4 3 3 4 3 1 0 0 0 0
18 19 19 19 20 20 21 24 26 26 25 23 23 24 26 27 25 18 14 13 12 12 13 13 11 8 8 8 7 7 6 4 4 3 3 3 3 2 1 0 0 0 0
16 17 18 18 18 18 18 19 21 22 20 19 19 20 21 24 22 16 12 11 11 9 9 9 7 5 5 5 6 5 4 3 3 3 3 3 3 3 1 0 0 0 0
11 13 14 15 16 17 16 17 18 18 18 18 17 15 15 17 16 13 9 7 7 8 8 7 5 3 3 3 4 4 3 2 2 2 3 3 3 3 2 1 0 0 0
9 10 11 14 16 16 15 14 14 15 15 15 13 10 9 11 11 8 5 3 4 5 7 8 6 3 1 2 2 2 1 1 1 1 2 3 3 2 1 1 1 0 0
9 9 11 13 15 15 13 12 12 12 13 12 9 6 6 7 7 5 3 2 3 4 6 7 5 3 1 1 1 1 0 0 0 1 2 2 2 1 0 0 0 0 0
7 8 10 12 13 13 11 10 11 11 10 9 6 5 5 5 5 4 3 3 4 5 4 4 3 1 0 0 0 0 0 0 0 0 1 1 1 0 0 0 0 0 0
8 9 11 12 11 10 9 9 9 8 6 4 3 2 3 3 4 4 4 4 5 5 4 4 3 1 0 0 0 0 0 0 0 0 0 0 0 0 0 0 0 0 0
11 12 12 11 9 8 8 8 6 4 2 1 0 0 1 1 3 4 4 4 3 3 5 6 5 3 1 0 0 0 0 0 0 0 0 0 0 0 0 0 0 0 0
14 14 11 8 7 7 8 7 5 2 0 0 0 0 0 1 3 3 4 4 3 4 5 6 4 2 1 0 0 0 0 0 0 0 0 0 0 0 0 0 0 0 0
14 13 9 6 6 7 8 7 4 1 0 0 0 0 1 2 2 2 4 5 5 4 4 3 2 1 0 0 0 0 0 0 0 0 1 1 0 0 0 0 0 0 0
11 9 6 5 6 7 7 6 3 1 0 0 0 1 1 2 2 4 7 7 5 2 1 1 1 1 0 0 0 0 0 0 0 0 1 1 0 0 0 0 0 0 0
6 5 4 4 5 6 6 5 2 0 0 0 0 1 2 2 3 6 8 6 2 0 0 1 1 1 0 0 0 0 0 0 0 0 0 0 0 0 0 0 0 0 0
3 3 2 3 4 4 5 4 2 1 0 0 0 1 1 2 4 4 4 2 0 0 0 0 0 0 0 0 0 0 0 0 0 0 0 0 0 0 0 0 0 0 0
1 1 1 1 2 3 4 3 2 1 0 0 0 0 1 2 3 2 0 0 0 0 0 0 0 0 0 0 0 0 0 0 0 0 0 0 0 1 1 1 1 1 1
1 0 1 2 2 2 2 2 1 1 0 0 0 0 0 1 1 0 0 0 0 0 0 0 0 0 0 0 0 0 0 0 0 0 0 1 1 1 2 2 2 2 3
1 0 1 2 2 2 1 1 0 0 0 0 0 0 0 0 0 0 0 0 0 0 0 0 0 0 0 0 0 0 0 0 0 0 0 1 1 1 1 1 1 1 2

GEFSMW_con_probscp_198.txt.gz
Probability
23 25 29 31 32 35 37 37 38 35 31 27 21 17 16 16 16 16 15 13 12 11 9 8 8 7 7 7 8 6 3 1 0 0 0 0 0 0 0 0 0 1 1
22 25 29 32 33 33 34 34 34 32 30 27 22 17 15 16 16 16 14 12 11 10 7 5 5 5 5 6 7 5 2 1 0 0 0 0 0 0 0 0 0 0 1
20 23 28 31 32 33 32 31 31 31 31 28 23 17 14 14 15 14 12 10 9 8 5 3 2 2 3 4 4 3 1 0 0 0 0 0 0 0 0 0 0 0 0
19 21 23 25 28 30 30 29 30 32 32 29 23 17 13 12 11 11 11 9 8 7 5 3 1 1 1 2 2 1 0 0 0 0 0 0 0 0 0 0 0 0 0
18 18 18 18 19 23 25 26 27 29 30 28 23 17 13 11 9 10 10 8 7 6 6 4 2 1 1 2 1 1 0 0 0 0 0 0 0 0 0 0 0 0 0
16 14 14 14 14 17 20 22 23 24 26 26 21 16 13 11 10 11 9 7 6 6 5 3 1 1 2 3 2 1 0 0 0 0 0 0 0 0 0 0 0 0 0
11 11 11 12 12 13 16 20 22 22 22 21 18 16 13 12 11 11 9 7 6 6 4 3 1 0 2 3 3 1 0 0 0 0 0 0 0 0 0 0 0 0 0
7 8 9 10 10 11 14 19 22 22 20 17 14 13 11 10 10 9 8 7 6 6 4 3 1 1 2 3 2 1 0 0 0 0 0 0 0 0 0 0 0 0 0
5 5 6 8 9 11 14 17 20 20 16 12 9 7 7 6 6 6 6 6 6 6 4 3 2 1 3 3 2 0 0 0 0 0 0 0 0 0 0 0 0 0 0
4 3 4 6 9 13 14 15 17 15 11 8 5 4 4 2 2 3 4 4 5 5 4 3 3 2 3 3 1 0 1 1 0 0 0 0 0 0 0 0 0 0 0
3 3 4 6 9 12 13 13 13 12 9 6 4 3 2 1 0 1 2 3 3 3 2 2 3 3 3 2 1 1 2 2 1 0 0 0 0 0 0 0 0 0 0
1 2 4 6 7 10 11 11 10 10 9 7 5 4 2 1 0 0 1 1 1 1 1 1 2 2 2 2 1 2 3 2 1 0 0 0 0 0 0 0 0 0 0
0 2 4 5 5 6 7 8 7 7 8 6 4 3 2 1 0 0 0 0 0 0 0 1 2 1 1 1 1 1 2 1 0 0 0 0 0 0 0 0 0 0 0
1 2 3 3 3 4 5 6 6 5 5 5 4 3 2 1 0 0 0 0 0 0 0 1 2 1 0 0 1 1 1 0 0 0 0 0 0 0 0 0 0 0 0
1 2 3 3 3 3 4 5 4 2 2 3 2 1 1 0 0 0 0 0 0 0 0 0 1 1 0 0 0 0 0 0 0 0 0 0 0 0 0 0 0 0 0
0 1 2 3 3 3 2 2 2 1 0 1 1 0 0 0 0 0 0 0 0 0 0 0 0 0 0 0 0 0 0 0 0 0 0 0 0 0 0 0 0 0 0
0 0 1 2 2 1 1 0 0 0 0 0 0 0 0 0 0 0 0 0 0 0 0 0 0 0 0 0 0 0 0 0 0 0 0 0 0 0 0 0 0 0 0
0 0 1 2 1 0 0 0 0 0 0 0 0 0 0 0 0 0 0 0 0 0 0 0 0 0 0 0 0 0 0 0 0 0 0 0 0 0 0 0 0 0 0
0 0 1 1 1 0 0 0 0 0 0 0 0 0 0 0 0 0 0 0 0 0 0 0 0 0 0 0 0 0 0 0 0 0 0 0 0 0 0 0 0 0 0
0 0 0 0 0 0 0 0 0 0 0 0 0 0 0 0 0 0 0 0 0 0 0 0 0 0 0 0 0 0 0 0 0 0 0 0 0 0 0 0 0 0 0
0 0 0 0 0 0 0 0 0 0 0 0 0 0 0 0 0 0 0 0 0 0 0 0 0 0 0 0 0 0 0 0 0 0 0 0 0 0 0 0 0 0 0
0 0 0 0 0 0 0 0 0 0 0 0 0 0 0 0 0 0 0 0 0 0 0 0 0 0 0 0 0 0 0 0 0 0 0 0 0 0 0 0 0 0 0
0 0 0 0 0 0 0 0 0 0 0 0 0 0 0 0 0 0 0 0 0 0 0 0 0 0 0 0 0 0 0 0 0 0 0 0 0 0 0 0 0 0 0
1 0 0 0 0 0 0 0 0 0 0 0 0 0 0 0 0 0 0 0 0 0 0 0 0 0 0 0 0 0 0 0 0 0 0 0 0 0 0 0 0 0 0
1 0 0 0 0 0 0 0 0 0 0 0 0 0 0 0 0 0 0 0 0 0 0 0 0 0 0 0 0 0 0 0 0 0 0 0 0 0 0 0 0 0 0
1 0 0 0 0 0 0 0 0 0 0 0 0 0 0 0 0 0 0 0 0 0 0 0 0 0 0 0 0 0 0 0 0 0 0 0 0 0 0 0 0 0 0

GEFSMW_con_probscp_204.txt.gz
Probability
9 11 12 13 14 17 20 20 19 19 19 17 14 12 12 12 13 12 12 12 13 11 10 8 7 6 5 3 2 1 0 0 0 0 1 2 3 3 3 3 3 1 0
11 13 14 13 13 15 19 19 18 18 18 16 13 11 11 11 12 12 12 12 11 10 8 7 5 4 4 3 2 1 0 0 0 0 0 1 2 2 2 2 2 1 1
12 14 14 12 11 12 15 15 14 15 16 15 12 11 11 10 10 11 11 11 10 8 7 5 3 2 2 1 1 1 0 0 0 0 0 0 0 1 1 1 1 1 0
8 9 9 8 9 10 11 11 10 11 12 12 12 12 12 10 9 9 9 9 9 7 5 4 2 1 1 1 0 0 0 0 0 0 0 0 0 0 0 0 0 0 0
3 4 4 4 7 10 10 10 8 7 6 8 9 10 10 10 8 8 8 8 7 6 4 3 2 1 0 0 0 0 0 0 0 0 0 0 0 0 0 0 0 0 0
2 1 2 3 5 8 9 9 7 4 4 6 8 7 8 9 8 7 7 6 6 5 4 3 3 1 0 0 0 0 0 0 0 0 0 0 0 0 0 0 0 0 0
2 2 3 3 4 5 7 7 6 4 5 7 8 6 6 6 6 6 6 5 4 5 4 3 3 2 1 0 0 0 0 0 0 0 1 1 0 0 0 0 0 0 0
3 3 3 3 3 3 4 6 6 7 8 8 7 6 4 2 2 3 3 3 3 4 3 2 3 2 1 0 0 0 0 0 0 1 2 2 1 0 0 0 0 0 0
4 4 3 3 3 2 3 6 8 9 9 8 6 5 2 1 0 0 1 1 3 4 2 1 2 2 1 0 0 0 0 0 0 1 3 3 1 0 0 0 0 0 0
4 4 4 3 2 2 3 6 8 9 8 7 6 5 3 2 1 0 0 1 2 3 1 0 1 1 0 0 0 0 0 0 0 1 2 3 2 0 0 0 0 0 0
3 3 3 2 2 2 4 5 6 6 6 6 5 4 3 2 1 0 0 0 1 1 0 0 0 0 0 0 0 0 0 0 0 1 1 2 1 0 0 0 0 0 0
1 1 1 1 1 2 3 4 4 4 4 4 3 3 2 1 0 0 0 0 0 0 0 0 0 0 0 0 0 0 0 0 0 0 0 0 0 0 0 0 0 0 0
0 0 0 0 0 1 1 2 3 4 3 2 1 1 1 0 0 0 0 0 0 0 0 0 0 0 0 0 0 0 0 0 0 0 0 0 0 0 0 0 0 0 0
0 0 0 0 0 0 0 1 2 3 3 1 0 0 0 0 0 0 0 0 0 0 0 0 0 0 0 0 0 0 0 0 0 0 0 0 0 0 0 0 0 0 0
0 0 0 0 0 0 0 0 1 1 1 0 0 0 0 0 0 0 0 0 0 0 0 0 0 0 0 0 0 0 0 0 0 0 0 0 0 0 0 0 0 0 0
0 0 0 0 0 0 0 0 0 0 0 0 0 0 0 0 0 0 0 0 0 0 0 0 0 0 0 0 0 0 0 0 0 0 0 0 0 0 0 0 0 0 0
0 0 0 0 0 0 0 0 0 0 0 0 0 0 0 0 0 0 0 0 0 0 0 0 0 0 0 0 0 0 0 0 0 0 0 0 0 0 0 0 0 0 0
0 0 0 0 0 0 0 0 0 0 0 0 0 0 0 0 0 0 0 0 0 0 0 0 0 0 0 0 0 0 0 0 0 0 0 0 0 0 0 0 0 0 0
0 0 0 0 0 0 0 0 0 0 0 0 0 0 0 0 0 0 0 0 0 0 0 0 0 0 0 0 0 0 0 0 0 0 0 0 0 0 0 0 0 0 0
0 0 0 0 0 0 0 0 0 0 0 0 0 0 0 0 0 0 0 0 0 0 0 0 0 0 0 0 0 0 0 0 0 0 0 0 0 0 0 0 0 0 0
0 0 0 0 0 0 0 0 0 0 0 0 0 0 0 0 0 0 0 0 0 0 0 0 0 0 0 0 0 0 0 0 0 0 0 0 0 0 0 0 0 0 0
0 0 0 0 0 0 0 0 0 0 0 0 0 0 0 0 0 0 0 0 0 0 0 0 0 0 0 0 0 0 0 0 0 0 0 0 0 0 0 0 0 0 0
0 0 0 0 0 0 0 0 0 0 0 0 0 0 0 0 0 0 0 0 0 0 0 0 0 0 0 0 0 0 0 0 0 0 0 0 0 0 0 0 0 0 0
0 0 0 0 0 0 0 0 0 0 0 0 0 0 0 0 0 0 0 0 0 0 0 0 0 0 0 0 0 0 0 0 0 0 0 0 0 0 0 0 0 0 0
0 0 0 0 0 0 0 0 0 0 0 0 0 0 0 0 0 0 0 0 0 0 0 0 0 0 0 0 0 0 0 0 0 0 0 0 0 0 0 0 0 0 0
0 0 0 0 0 0 0 0 0 0 0 0 0 0 0 0 0 0 0 0 0 0 0 0 0 0 0 0 0 0 0 0 0 0 0 0 0 0 0 0 0 0 0

GEFSMW_con_probscp_210.txt.gz
Probability
18 19 19 20 20 21 25 28 29 32 35 35 35 35 36 33 28 24 20 18 18 20 21 20 19 21 23 22 21 20 19 16 12 9 5 2 2 4 5 5 5 4 3
19 20 20 19 18 18 22 26 30 33 34 34 34 35 35 31 27 23 20 19 21 22 22 22 21 22 23 22 22 22 20 17 15 12 9 5 4 3 4 5 5 5 5
18 20 20 18 16 17 21 25 29 31 32 32 31 31 30 27 24 22 20 19 21 22 22 22 22 22 21 19 20 21 20 19 17 15 12 9 5 2 2 4 5 6 6
15 17 18 15 13 15 19 23 25 27 29 31 30 28 25 23 22 21 21 20 19 19 19 20 21 20 18 17 18 19 19 19 16 14 11 10 7 3 2 3 5 6 6
11 14 15 12 10 10 13 17 21 24 26 27 28 27 25 24 24 23 22 20 18 16 15 16 18 17 15 16 18 19 19 17 14 12 9 9 8 5 3 3 4 5 5
8 10 12 11 10 9 11 14 19 22 23 23 24 26 26 25 24 24 23 21 17 15 14 14 14 14 13 16 18 19 18 16 13 11 10 9 8 6 5 4 3 3 3
7 8 9 10 11 11 11 13 17 20 19 20 22 24 26 25 24 23 23 21 17 15 13 12 11 10 11 13 15 16 15 14 12 11 12 10 8 7 6 5 3 3 3
7 8 8 8 10 11 12 13 15 18 19 20 22 23 23 23 22 21 20 19 17 14 12 10 8 7 7 8 9 10 10 10 10 9 10 8 6 6 6 5 4 4 4
7 8 8 7 7 9 10 11 13 16 19 20 20 20 19 19 19 18 17 16 16 13 10 7 4 4 5 4 4 4 6 7 7 7 7 6 5 5 6 6 5 4 4
5 6 6 6 6 7 9 9 11 13 15 17 17 17 16 14 14 14 13 13 12 10 7 4 3 3 4 4 3 3 4 5 6 6 6 5 4 4 5 6 6 5 5
4 4 5 6 6 7 8 8 9 10 11 13 14 15 14 13 12 11 10 9 7 5 3 1 2 4 5 5 3 3 3 3 4 6 6 6 5 5 5 6 6 6 6
3 3 4 5 6 7 7 7 8 8 9 10 11 12 13 13 11 9 7 6 5 4 1 0 1 2 3 4 3 3 3 3 4 6 6 6 6 5 6 6 5 6 7
2 2 3 4 5 6 6 6 7 8 9 10 10 10 12 13 11 8 6 6 5 3 1 0 0 0 1 1 1 2 3 3 4 5 6 6 6 6 6 6 5 5 5
1 1 2 2 4 5 5 5 6 8 9 9 9 10 11 13 11 8 7 6 4 1 0 0 0 0 0 0 0 1 1 3 3 4 5 6 6 6 6 6 6 6 6
1 1 2 2 3 4 4 4 4 5 7 8 8 8 10 12 11 9 8 5 2 1 0 0 0 0 0 0 0 0 1 2 3 3 4 5 4 4 4 4 5 6 6
0 1 1 2 3 3 4 4 4 4 5 6 6 6 7 8 8 8 7 4 1 0 0 0 0 0 0 0 0 0 1 2 3 3 3 4 3 2 2 2 2 3 4
1 1 1 2 3 4 4 4 5 5 4 5 5 4 4 5 5 5 4 3 1 0 0 0 0 0 0 0 0 0 0 2 3 3 3 3 3 3 2 1 1 2 2
3 3 3 3 3 3 4 4 4 4 4 5 5 4 3 3 3 3 3 3 2 0 0 0 0 0 0 0 0 0 1 2 3 3 3 3 3 3 2 2 2 2 2
4 5 4 3 2 3 3 3 3 3 3 4 5 4 3 3 3 3 3 3 1 0 0 0 0 0 0 0 0 0 1 2 3 4 4 3 2 1 1 3 3 3 3
3 4 3 2 1 2 2 2 3 2 1 2 4 4 4 3 3 3 3 2 1 0 0 0 0 0 0 0 0 0 0 1 3 4 4 3 2 1 1 2 3 3 3
2 2 2 1 2 3 3 3 2 1 0 1 3 4 3 3 3 2 1 1 0 0 0 0 0 0 0 0 0 0 0 1 2 3 4 2 1 0 0 1 2 2 2
2 1 1 1 2 3 3 3 1 1 1 1 3 3 3 3 2 1 0 0 0 0 0 0 0 0 0 0 0 0 0 1 1 1 2 1 0 0 0 0 1 1 1
1 0 0 0 1 2 2 2 1 2 2 3 3 3 2 1 1 0 0 0 0 0 0 0 0 0 0 0 0 0 0 0 0 0 0 0 0 0 0 0 0 0 0
0 0 0 0 0 1 1 1 1 2 2 3 3 2 1 0 0 0 0 0 0 0 0 0 0 0 0 0 0 0 0 0 0 0 0 0 0 0 0 0 0 0 0
0 0 0 0 0 0 0 0 0 1 1 1 2 1 0 0 0 0 0 0 0 0 0 0 0 0 0 0 0 0 0 0 0 0 0 0 0 0 0 0 0 0 0
0 0 0 0 0 0 0 0 0 0 0 0 1 0 0 0 0 0 0 0 0 0 0 0 0 0 0 0 0 0 0 0 0 0 0 0 0 0 0 0 0 0 0

GEFSMW_con_probscp_216.txt.gz
Probability
27 28 31 32 34 35 37 37 40 46 49 44 36 31 32 35 37 37 36 32 29 29 26 23 24 26 26 27 27 23 19 17 16 14 11 8 6 6 7 9 10 7 6
26 27 28 30 32 36 37 38 42 45 45 42 38 35 34 35 34 34 32 28 26 28 25 24 25 27 26 25 24 21 18 17 17 16 12 8 6 5 6 8 8 7 6
25 24 23 23 26 31 34 37 42 42 38 36 37 38 37 34 31 30 30 27 25 26 26 24 25 26 23 21 20 19 17 17 17 16 13 9 5 5 6 6 6 6 6
22 20 18 17 19 23 28 33 37 36 32 31 34 37 37 34 30 29 30 29 25 24 24 23 22 23 22 20 19 18 18 17 16 16 14 11 7 6 5 5 5 6 7
17 16 15 15 16 18 23 26 28 29 29 31 33 36 36 34 31 30 30 28 25 23 22 21 22 23 22 21 20 19 18 16 16 15 14 12 10 7 5 4 4 6 7
17 16 15 17 18 18 19 20 21 23 26 29 31 34 34 33 33 31 29 27 24 22 22 21 22 23 22 22 21 20 17 15 14 14 14 14 12 10 7 4 3 4 5
18 17 17 18 20 19 18 18 20 22 24 26 28 30 31 30 30 29 27 25 23 21 20 20 20 21 21 20 19 18 16 15 13 12 12 14 14 13 10 6 3 3 2
17 16 16 18 20 19 17 17 19 22 23 24 25 26 26 25 24 24 23 22 20 19 18 19 20 19 18 16 15 15 15 15 13 10 9 11 13 12 10 6 3 1 1
13 12 13 16 18 17 15 16 18 20 21 22 22 22 21 19 19 19 20 20 19 18 18 19 19 18 15 13 13 14 14 14 11 9 8 9 9 9 8 7 4 2 1
9 9 10 13 14 14 14 15 18 18 18 18 18 18 17 16 15 17 18 19 18 17 17 16 16 13 11 11 12 12 12 12 11 9 8 7 7 6 6 7 7 5 4
6 6 8 10 10 10 11 14 15 15 14 15 15 15 14 13 13 14 15 16 15 14 12 11 10 8 8 10 10 10 9 9 9 7 6 5 5 5 5 6 7 7 6
4 5 6 8 8 8 9 10 12 12 11 11 11 11 11 11 11 12 13 12 11 9 8 8 7 6 7 8 8 8 7 6 5 4 3 2 2 3 3 4 5 6 6
6 6 7 8 8 8 8 9 10 10 10 10 10 10 10 10 11 12 12 11 9 7 7 7 7 6 6 5 5 5 5 4 3 3 2 2 2 2 2 3 3 4 4
7 8 9 9 8 9 10 10 10 10 10 10 10 11 12 12 12 12 11 10 8 7 6 6 6 5 3 2 1 2 3 3 2 2 2 3 3 3 3 3 3 3 3
7 8 9 8 7 8 9 9 9 10 10 10 11 12 13 12 11 10 9 9 8 6 4 4 4 3 1 0 0 0 2 2 2 1 2 2 2 2 2 3 3 3 3
5 6 6 6 6 6 7 7 7 9 10 10 9 10 10 9 8 7 7 7 6 4 3 3 2 1 0 0 0 0 1 2 1 2 1 1 1 1 1 1 2 2 2
5 4 4 4 6 6 6 6 6 6 7 7 6 5 5 5 5 4 4 4 4 3 3 3 1 0 0 0 0 0 1 1 1 2 2 1 1 1 1 1 1 1 1
7 6 5 5 7 8 8 6 4 4 4 4 3 3 2 2 3 3 3 3 3 3 3 2 1 0 0 0 0 0 0 0 0 1 2 2 1 1 2 2 2 2 1
10 10 8 8 10 11 10 7 4 3 3 3 3 2 1 1 3 3 3 3 3 3 2 1 0 0 0 0 0 0 0 0 0 1 1 1 1 0 1 3 3 3 2
10 11 12 12 13 13 11 8 5 3 3 3 3 3 2 2 3 3 3 3 3 2 1 0 0 0 0 0 0 0 0 0 0 0 0 0 0 0 1 2 3 3 3
8 11 14 15 15 13 11 9 6 4 3 3 3 3 3 3 3 3 3 2 1 1 0 0 0 0 0 0 0 0 0 0 0 0 0 0 0 0 0 1 1 2 2
7 11 15 16 15 12 10 9 7 5 3 3 4 5 4 3 2 2 1 1 0 0 0 0 0 0 0 0 0 0 0 0 0 0 0 0 0 0 0 0 0 1 1
8 11 13 13 12 11 10 8 6 4 3 3 4 5 4 2 1 0 0 0 0 0 0 0 0 0 0 0 0 0 0 0 0 0 0 0 0 0 0 0 0 0 0
7 9 9 8 8 8 7 6 4 3 2 2 2 3 3 1 0 0 0 0 0 0 0 0 0 0 0 0 0 0 0 0 0 0 0 0 0 0 0 0 0 0 0
6 7 6 5 5 5 5 4 4 3 2 1 0 1 1 1 0 0 0 0 0 0 0 0 0 0 0 0 0 0 0 0 0 0 0 0 0 0 0 0 0 0 0
6 6 6 4 2 3 4 4 5 3 1 0 0 0 1 0 0 0 0 0 0 0 0 0 0 0 0 0 0 0 0 0 0 0 0 0 0 0 0 0 0 0 0

GEFSMW_con_probscp_222.txt.gz
Probability
7 9 12 13 11 10 12 13 14 13 10 9 9 8 8 8 10 10 10 9 9 7 6 7 8 8 6 6 7 7 6 6 6 4 2 1 0 1 1 1 0 0 0
8 10 12 12 10 9 10 11 12 10 8 7 7 7 6 6 7 9 9 9 8 7 5 5 6 6 4 4 5 5 5 5 5 4 2 1 0 0 0 0 0 0 0
8 10 11 11 9 8 9 10 8 6 4 4 5 6 6 6 6 6 7 8 9 8 7 5 5 5 4 2 2 3 4 4 4 3 1 0 0 0 0 0 0 0 0
7 9 10 10 10 9 10 10 7 4 3 4 5 6 7 6 6 6 6 8 9 9 8 7 7 6 5 3 2 3 3 3 3 2 1 0 0 0 0 0 0 0 0
9 9 9 10 11 11 12 10 6 3 3 5 6 7 7 6 6 6 6 7 8 8 8 9 10 9 6 4 3 3 3 4 4 3 1 0 0 0 0 0 0 0 0
8 9 9 9 10 11 11 9 6 3 3 5 7 8 8 7 7 7 7 7 7 7 8 10 12 11 7 4 3 4 4 5 5 4 2 1 0 0 0 0 0 0 0
5 6 7 7 7 7 7 7 6 4 4 6 8 9 8 7 8 8 8 9 7 6 7 9 12 11 8 5 5 6 6 6 6 5 3 1 0 0 0 0 0 0 0
2 3 4 4 3 3 4 6 6 6 6 7 8 9 8 8 8 8 9 10 9 8 7 8 9 10 9 7 7 7 6 6 5 4 2 0 0 0 0 0 0 0 0
0 1 2 2 1 1 3 4 5 6 7 6 6 6 7 8 8 7 8 9 9 8 8 7 8 9 9 8 8 6 5 4 3 2 0 0 0 0 0 0 0 0 0
0 0 0 1 1 2 3 3 5 7 7 6 5 5 7 8 8 7 7 7 6 6 7 7 8 8 8 7 6 5 3 2 1 0 0 0 0 0 0 0 0 0 0
0 0 0 0 1 1 3 4 5 7 6 6 5 5 6 7 7 6 6 5 3 3 4 5 6 6 5 5 5 4 2 1 0 0 0 0 0 0 0 0 0 0 0
1 1 1 0 0 1 3 5 5 6 5 4 4 5 5 5 5 5 4 4 3 2 3 3 4 4 3 3 3 3 1 0 0 0 0 0 0 0 0 0 0 0 0
2 2 2 1 1 1 3 4 4 4 4 4 4 4 4 4 4 3 3 3 3 3 3 3 3 3 3 3 3 3 1 0 0 0 0 0 0 0 0 0 0 0 0
3 2 1 1 1 2 3 3 3 3 4 4 4 3 3 2 2 1 1 2 2 3 3 3 3 3 3 3 3 3 2 0 0 0 0 0 0 0 0 0 0 0 0
2 1 0 1 1 2 2 3 3 3 3 4 3 3 1 1 0 0 0 1 1 1 2 2 2 3 3 3 3 2 1 0 0 0 0 0 0 0 0 0 0 0 0
2 1 0 0 0 1 1 2 3 3 3 3 3 2 1 0 0 0 0 0 0 0 1 1 1 1 2 2 1 1 0 0 0 0 0 0 0 0 0 0 0 0 0
1 0 0 0 0 0 0 1 2 2 2 2 2 1 0 0 0 0 0 0 0 0 0 0 0 0 1 1 0 0 0 0 0 0 0 0 0 0 0 0 0 0 0
0 0 0 0 0 0 0 0 1 1 1 1 1 0 0 0 0 0 0 0 0 0 0 0 0 0 0 0 0 0 0 0 0 0 0 0 0 0 0 0 0 0 0
0 0 0 0 0 0 0 0 0 0 0 0 0 0 1 1 0 0 0 0 0 0 0 0 0 0 0 0 0 0 0 0 0 0 0 0 0 0 0 0 0 0 0
0 0 0 0 0 0 0 0 0 0 0 0 0 0 1 1 0 0 0 0 0 0 0 0 0 0 0 0 0 0 0 0 0 0 0 0 0 0 0 0 0 0 0
0 0 0 0 0 0 0 0 1 0 0 0 1 1 1 1 0 0 0 0 0 0 0 0 0 0 0 0 0 0 0 0 0 0 0 0 0 0 0 0 0 0 0
0 0 0 0 0 0 0 0 0 0 0 1 2 2 1 0 0 0 0 0 0 0 0 0 0 0 0 0 0 0 0 0 0 0 0 0 0 0 0 0 0 0 0
0 0 0 0 0 0 0 0 0 0 0 1 2 3 2 0 0 0 0 0 0 0 0 0 0 0 0 0 0 0 0 0 0 0 0 0 0 0 0 0 0 0 0
0 0 0 0 0 0 0 0 0 0 0 0 1 2 1 0 0 0 0 0 0 0 0 0 0 0 0 0 0 0 0 0 0 0 0 0 0 0 0 0 0 0 0
0 0 0 0 0 0 0 0 0 0 0 0 1 1 1 0 0 0 0 0 0 0 0 0 0 0 0 0 0 0 0 0 0 0 0 0 0 0 0 0 0 0 0
0 0 0 0 0 0 0 0 0 0 0 0 0 1 1 1 0 0 0 0 0 0 0 0 0 0 0 0 0 0 0 0 0 0 0 0 0 0 0 0 0 0 0

GEFSMW_con_probscp_228.txt.gz
Probability
0 1 1 2 3 4 7 11 12 13 11 8 7 7 7 5 4 4 5 5 6 6 6 6 6 7 5 4 3 3 3 3 3 3 2 1 1 1 0 1 2 4 4
1 2 3 3 3 4 7 10 11 10 8 6 5 5 4 4 4 3 3 4 4 4 4 4 5 5 4 4 4 4 3 3 3 3 2 1 1 0 0 1 2 4 5
4 5 5 5 5 5 7 10 9 6 4 4 3 2 2 3 3 3 3 3 3 3 3 3 3 3 3 3 5 5 4 3 4 4 2 1 0 0 0 1 1 3 3
7 7 6 6 6 5 6 7 7 4 3 2 2 1 1 2 3 3 3 3 3 3 2 1 2 3 2 2 5 6 5 4 3 3 2 1 0 0 0 0 0 1 1
6 7 7 6 5 4 4 5 5 3 1 1 1 0 0 2 3 3 3 3 2 1 1 0 1 2 2 1 3 4 4 3 3 3 2 1 0 0 0 0 0 0 0
3 4 6 6 5 4 4 4 3 1 0 0 0 0 1 2 3 3 3 3 2 0 0 0 0 1 2 2 3 4 4 4 4 4 4 3 1 0 0 0 0 0 0
1 2 4 4 4 5 4 3 1 0 0 0 0 0 1 2 3 3 2 2 2 1 0 0 0 0 1 3 5 6 6 6 6 6 6 5 3 1 0 0 0 0 0
0 0 1 1 2 3 3 1 0 0 0 0 0 1 1 2 2 1 1 2 2 1 1 0 0 0 0 2 6 8 8 8 8 7 6 6 5 3 1 0 0 0 0
0 0 0 0 0 1 1 0 0 0 0 0 1 2 2 2 1 1 1 2 1 1 2 2 1 0 1 2 5 7 7 7 7 6 6 5 5 3 2 1 0 0 0
0 0 0 0 0 0 0 0 0 0 0 0 1 2 2 1 1 1 2 2 2 2 3 3 2 1 1 3 4 5 5 5 4 4 4 4 4 4 3 1 0 0 0
0 0 0 0 0 0 0 0 0 0 0 0 0 1 1 0 0 1 2 2 3 3 3 3 3 2 2 3 3 3 3 3 3 3 3 3 3 3 2 1 0 0 0
0 0 0 0 0 0 0 0 0 0 0 0 0 0 0 0 0 0 1 1 2 3 3 2 2 2 3 4 4 3 3 3 3 2 2 2 1 1 1 1 0 0 0
1 0 0 0 0 0 0 0 0 0 0 0 0 0 0 0 0 0 0 0 1 1 1 1 1 1 2 4 4 4 3 2 2 1 0 0 0 0 0 0 0 0 0
2 1 0 0 0 0 0 0 0 0 0 0 0 0 0 0 0 0 0 0 0 0 0 0 0 0 1 1 2 1 1 1 1 0 0 0 0 0 0 0 0 0 0
2 1 0 0 0 0 0 0 0 0 0 0 0 0 0 0 0 0 0 0 0 0 0 0 0 0 0 0 0 0 0 0 0 0 0 0 0 0 0 0 0 0 0
2 1 0 0 0 0 0 0 0 0 0 0 0 0 0 0 0 0 0 0 0 0 0 0 0 0 0 0 0 0 0 0 0 0 0 0 0 0 0 0 0 0 0
2 1 0 0 0 0 0 0 0 0 0 0 0 1 1 1 0 0 0 0 0 0 0 0 0 0 0 0 0 0 0 0 0 0 0 0 0 0 0 0 0 0 0
1 0 0 0 0 0 0 0 0 0 0 0 1 2 2 2 1 0 0 0 0 0 0 0 0 0 0 0 0 0 0 0 0 0 0 0 0 0 0 0 0 0 0
0 0 0 0 0 0 0 0 0 0 0 0 1 2 2 2 1 0 0 0 0 0 0 0 0 0 0 0 0 0 0 0 0 0 0 0 0 0 0 0 0 0 0
0 0 0 0 0 0 0 0 0 0 0 0 1 1 1 1 0 0 0 0 0 0 0 0 0 0 0 0 0 0 0 0 0 0 0 0 0 0 0 0 0 0 0
0 0 0 0 0 0 0 0 0 0 0 0 0 0 0 0 0 0 0 0 0 0 0 0 0 0 0 0 0 0 0 0 0 0 0 0 0 0 0 0 0 0 0
0 0 0 0 0 0 0 0 0 0 0 0 0 0 0 0 0 0 0 0 0 0 0 0 0 0 0 0 0 0 0 0 0 0 0 0 0 0 0 0 0 0 0
0 0 0 0 0 0 0 0 0 0 0 0 0 0 0 0 0 0 0 0 0 0 0 0 0 0 0 0 0 0 0 0 0 0 0 0 0 0 0 0 0 0 0
0 0 0 0 0 0 0 0 0 0 0 0 0 0 0 0 0 0 0 0 0 0 0 0 0 0 0 0 0 0 0 0 0 0 0 0 0 0 0 0 0 0 0
0 0 0 0 0 0 0 0 0 0 0 0 0 0 0 0 0 0 0 0 0 0 0 0 0 0 0 0 0 0 0 0 0 0 0 0 0 0 0 0 0 0 0
0 0 0 0 0 0 0 0 0 0 0 0 0 0 0 0 0 0 0 0 0 0 0 0 0 0 0 0 0 0 0 0 0 0 0 0 0 0 0 0 0 0 0

GEFSMW_con_probscp_234.txt.gz
Probability
15 19 22 22 23 25 29 32 32 31 30 28 25 22 18 16 13 12 14 17 16 14 12 12 17 21 24 25 24 21 19 17 16 15 12 11 11 11 12 11 9 8 10
12 16 18 19 20 22 25 27 27 26 25 25 23 20 18 16 13 11 12 14 14 12 10 12 17 21 24 26 25 23 20 19 17 16 14 12 11 11 11 11 10 10 11
9 12 13 13 15 17 19 20 21 20 19 19 18 17 17 15 11 9 9 10 11 11 10 12 16 20 23 24 24 22 21 20 19 18 17 15 13 11 11 11 12 13 13
8 9 10 11 14 15 15 16 17 17 15 14 14 14 13 11 9 8 9 10 11 11 12 14 15 18 20 20 19 20 21 21 19 19 20 19 15 13 11 11 12 13 13
6 7 10 13 14 14 15 15 16 16 14 12 10 11 10 8 8 10 12 12 11 12 14 14 14 15 16 16 16 18 20 20 18 19 21 19 16 12 10 9 9 11 11
4 6 11 15 16 15 15 15 15 14 13 11 10 9 9 8 11 16 16 13 10 10 12 13 13 14 15 16 16 16 16 16 16 17 18 16 12 9 8 8 8 8 9
2 5 10 15 18 18 16 14 14 13 13 11 11 11 11 11 14 16 15 11 8 8 10 11 12 12 13 15 15 14 13 13 14 15 15 12 10 7 7 7 7 7 7
2 3 8 13 17 17 15 14 13 13 13 13 13 13 12 12 12 12 11 9 7 7 8 9 9 10 11 12 13 12 12 12 13 14 13 11 9 7 7 7 7 7 7
2 2 5 10 13 14 14 13 14 14 13 13 13 12 11 10 10 10 9 7 7 6 6 7 8 8 8 10 11 11 11 12 13 12 12 10 9 8 7 7 8 7 7
4 3 4 6 9 11 10 10 12 13 12 10 10 8 8 9 10 9 8 7 7 6 6 7 8 7 7 8 9 9 10 11 11 11 10 10 10 9 8 8 8 9 8
4 4 3 4 6 7 6 6 7 9 9 7 7 7 6 8 9 9 8 7 7 8 8 8 8 7 6 6 7 7 7 8 7 7 8 9 9 10 9 8 8 10 11
4 3 2 3 4 4 4 4 4 5 4 4 5 5 5 5 7 8 8 8 8 7 7 7 7 5 4 4 4 4 4 4 4 4 5 7 8 9 9 9 9 10 11
2 2 3 3 3 2 2 3 2 2 1 1 1 2 3 3 4 6 8 9 8 8 7 6 5 4 3 3 3 3 3 3 3 3 3 4 6 7 8 9 10 9 9
2 3 3 3 3 2 2 2 1 0 0 0 1 1 1 2 3 5 8 9 9 9 7 5 4 3 2 1 1 3 3 3 3 3 3 3 4 5 6 8 9 8 7
4 4 4 4 3 1 1 1 1 0 0 1 1 2 2 3 4 6 8 9 9 9 7 4 2 1 1 0 1 2 3 3 3 3 3 3 3 3 4 5 5 5 5
6 6 6 5 3 1 0 0 0 0 1 1 1 2 2 3 5 7 9 9 8 7 5 3 1 0 0 0 1 2 3 3 3 3 3 3 3 1 1 1 1 2 2
6 6 6 5 3 1 0 0 0 0 0 0 0 2 3 4 5 7 7 7 5 5 4 3 1 0 0 0 0 1 3 3 3 3 3 3 2 1 0 0 0 0 1
6 5 4 3 1 0 0 0 0 0 0 0 1 2 4 5 6 6 6 5 4 4 5 4 2 0 0 0 0 1 2 3 2 2 2 2 2 1 0 0 0 0 0
3 3 2 1 0 0 0 0 0 0 0 0 1 3 5 5 5 4 4 4 4 4 4 4 2 1 0 0 0 0 1 1 1 1 1 1 1 0 0 0 1 1 1
1 1 1 0 0 0 0 0 1 1 1 0 0 2 3 4 4 3 3 3 3 3 3 2 2 1 0 0 0 0 0 0 0 0 0 0 0 0 0 1 2 2 2
0 0 0 0 0 0 0 0 1 1 1 0 0 0 1 2 3 3 3 3 2 1 1 1 1 1 0 0 0 0 0 0 0 0 0 0 0 0 0 1 2 2 1
0 0 0 0 0 0 0 0 1 1 0 0 0 0 0 1 1 3 3 3 2 0 0 0 0 0 0 0 0 0 0 0 0 0 0 0 0 0 0 0 1 1 0
0 0 0 0 0 0 0 0 0 0 1 1 1 0 0 0 1 2 3 3 2 1 0 0 0 0 0 0 0 0 0 0 0 0 0 0 0 0 0 0 0 0 0
0 0 0 0 0 0 0 0 0 1 2 2 2 1 0 0 0 1 1 2 2 1 0 0 0 0 0 0 0 0 0 0 0 0 0 0 0 0 0 0 0 0 0
1 1 1 0 0 0 0 0 1 2 3 3 3 2 1 0 0 0 0 1 2 1 1 1 0 0 0 0 0 0 0 0 0 0 0 0 0 0 0 0 0 0 0
1 2 2 1 0 0 1 1 1 2 3 3 3 2 1 0 0 0 0 0 1 1 1 1 0 0 0 0 0 0 0 0 0 0 0 0 0 0 0 0 0 0 0

GEFSMW_con_probscp_240.txt.gz
Probability
22 23 25 28 33 40 43 45 46 47 47 46 46 43 37 30 24 19 16 17 19 19 18 17 19 19 16 15 16 16 13 12 13 14 11 9 12 15 17 17 15 13 12
22 23 24 25 30 37 41 43 45 47 47 46 44 41 35 28 21 17 16 17 18 18 17 18 19 19 16 15 16 15 12 11 12 13 11 9 10 12 14 15 14 13 13
19 20 22 24 28 34 38 41 44 45 45 44 42 38 32 24 19 16 15 16 16 16 16 18 18 17 15 14 14 14 12 11 11 11 11 8 8 9 10 13 14 14 14
13 15 18 22 26 30 35 40 42 43 41 40 37 34 27 21 18 17 16 16 16 16 16 17 17 15 13 11 11 12 12 11 10 10 10 9 9 9 9 10 13 14 14
10 13 16 19 21 26 32 38 41 40 38 35 33 30 24 20 18 17 16 17 18 17 16 17 16 14 11 10 11 11 11 10 10 11 10 11 11 10 9 9 11 12 12
11 12 15 17 19 22 28 34 38 39 37 33 30 27 23 19 18 16 16 18 19 17 14 14 14 13 11 11 12 11 10 10 11 11 11 11 11 11 8 7 8 9 11
11 11 14 17 17 19 24 29 33 36 35 31 27 24 22 19 18 18 17 17 17 15 12 11 12 11 10 11 13 12 11 10 10 12 11 11 11 10 7 5 5 7 9
10 11 14 16 16 18 22 27 29 30 29 28 24 22 21 19 18 18 18 16 14 12 9 9 10 10 10 11 13 12 11 10 10 10 10 10 10 8 6 5 4 5 6
10 11 13 15 15 17 23 27 27 26 25 25 23 21 20 20 19 17 16 13 12 11 9 9 10 11 11 12 12 12 12 11 9 8 8 9 9 8 6 6 5 5 4
9 10 11 13 13 14 19 23 24 22 22 22 21 20 20 19 18 16 14 12 12 11 11 11 11 11 11 11 11 10 10 10 8 7 7 7 7 6 6 6 5 4 3
7 8 9 11 11 11 12 16 19 19 18 17 17 19 20 19 18 17 15 13 12 12 12 11 11 10 9 8 7 6 5 5 5 5 4 3 4 4 4 4 4 4 3
6 7 8 10 10 10 11 12 14 15 14 14 16 20 21 19 17 16 15 13 12 11 11 10 9 7 6 5 4 3 2 1 2 3 2 0 1 3 3 3 3 3 3
6 8 10 11 11 11 11 11 11 11 11 11 15 18 19 18 15 13 12 12 10 10 9 8 7 5 4 3 3 2 1 0 1 2 2 1 1 2 3 3 3 3 3
6 8 10 11 12 11 10 10 9 8 7 8 11 13 14 14 11 10 10 10 9 9 8 7 6 4 3 2 2 1 1 0 0 1 2 2 2 3 3 3 3 4 4
6 7 9 10 11 10 10 10 9 7 6 6 7 8 9 9 9 9 9 8 7 7 7 6 5 3 1 1 1 0 0 0 0 0 1 2 2 2 2 3 3 4 5
6 7 9 10 10 10 9 9 9 7 6 6 6 7 7 7 8 8 7 6 6 6 6 6 4 2 1 0 0 0 0 0 0 0 0 1 1 1 1 1 2 3 3
8 9 10 10 10 11 11 10 8 7 6 6 6 7 7 7 7 7 6 6 7 7 7 7 5 3 2 1 0 0 0 0 0 0 0 0 0 0 0 0 1 1 1
8 9 10 10 10 12 12 10 7 6 6 6 6 7 7 7 8 8 7 8 8 8 9 10 8 5 3 1 0 0 0 0 0 0 0 0 0 0 0 1 2 2 1
6 7 7 7 9 11 11 9 6 4 4 4 5 6 8 9 10 10 10 9 8 7 8 9 8 7 3 1 0 0 0 0 0 0 0 0 0 0 0 1 2 3 3
4 5 5 6 8 9 8 7 5 4 3 3 4 5 8 11 12 12 11 9 7 6 5 6 7 8 5 2 0 0 0 0 0 0 1 0 0 0 0 0 1 2 3
4 5 6 8 9 8 6 5 5 5 4 3 4 5 8 10 11 11 10 8 6 4 3 4 7 8 6 2 0 0 0 0 0 0 0 0 0 0 0 0 0 1 2
2 4 5 7 9 7 4 4 6 6 4 4 5 6 7 8 8 8 8 8 5 4 3 4 6 6 4 1 0 0 0 0 0 0 0 0 0 0 0 0 0 0 1
1 3 4 5 7 6 4 5 7 7 6 5 6 6 6 6 6 6 5 6 5 3 2 3 3 4 3 1 0 0 0 0 0 0 0 0 0 0 0 0 0 1 2
1 2 3 4 5 5 5 7 7 7 7 6 6 6 6 6 6 5 4 4 3 2 1 1 1 2 2 1 0 0 0 0 0 0 0 0 0 0 0 0 0 1 2
0 1 3 5 6 6 7 8 8 8 7 7 6 6 6 6 6 5 4 3 3 2 1 0 0 1 1 1 0 0 0 0 0 0 0 0 0 0 0 0 0 0 1
0 1 4 6 7 7 7 9 9 8 8 7 6 6 6 6 6 6 4 3 3 3 1 0 0 0 0 0 0 0 0 0 0 0 0 0 0 0 0 0 0 0 0

GEFSMW_con_probscp_246.txt.gz
Probability
3 3 4 6 9 9 9 11 12 13 13 12 10 9 8 8 6 5 5 6 5 5 4 3 3 3 4 4 4 2 1 1 2 2 1 0 0 0 0 0 1 1 1
2 3 4 6 8 8 9 11 13 13 13 12 10 9 8 8 5 3 3 5 5 4 4 3 3 3 3 3 2 1 0 1 1 1 0 0 0 0 0 0 0 1 1
3 4 6 7 8 9 9 11 12 13 12 11 10 9 8 6 3 1 1 3 3 3 4 5 5 4 4 4 2 1 0 0 0 0 0 0 0 0 0 0 0 0 1
6 9 10 9 9 9 9 10 12 13 12 11 10 10 8 4 1 0 0 1 1 2 5 7 7 5 5 5 4 2 1 0 0 0 0 0 0 0 0 0 0 0 0
9 12 12 10 10 10 9 10 12 13 12 10 10 11 9 5 3 1 0 0 1 2 4 5 6 5 6 6 5 3 2 1 0 0 0 0 0 0 0 0 0 0 0
9 11 11 11 11 10 9 10 12 11 11 10 9 9 8 6 5 3 1 0 1 1 2 3 4 4 4 5 4 3 3 2 1 0 0 0 0 0 0 0 0 0 0
7 8 8 9 9 9 9 10 10 10 9 9 7 7 7 6 5 3 1 0 0 0 1 1 2 3 3 4 3 3 2 2 1 0 0 0 0 0 0 0 0 0 0
6 6 5 5 6 7 7 8 9 9 8 6 5 5 5 4 2 1 1 0 0 0 0 0 1 1 2 2 3 3 2 1 0 0 0 0 0 0 0 0 0 0 0
6 5 4 4 4 5 6 6 6 7 6 4 3 3 2 2 1 0 0 0 0 0 0 0 0 0 1 1 1 2 2 1 0 0 0 0 0 0 0 0 0 0 0
5 4 2 3 3 5 6 5 4 5 4 2 2 1 1 1 0 0 0 0 0 0 0 0 0 0 0 0 0 1 1 0 0 0 0 0 0 0 0 0 0 0 0
3 2 1 1 2 4 5 4 3 3 3 1 0 0 0 1 0 0 0 0 0 0 0 0 0 0 0 0 0 0 0 0 0 0 0 0 0 0 0 0 0 0 0
2 1 0 0 1 3 3 3 3 3 3 1 0 0 0 1 0 0 0 0 0 0 0 0 0 0 0 0 0 0 0 0 0 0 0 0 0 0 0 0 0 0 0
1 0 0 0 1 2 3 3 3 3 2 1 0 0 0 0 0 0 0 0 0 0 0 0 0 0 0 0 0 0 0 0 0 0 0 0 0 0 0 0 0 0 0
0 1 1 1 1 2 3 3 3 2 1 1 0 0 0 0 0 0 0 0 0 0 0 0 0 0 0 0 0 0 0 0 0 0 0 0 0 0 0 0 0 0 0
1 1 1 1 1 1 2 2 1 1 0 0 0 0 0 0 0 0 0 0 0 0 0 0 0 0 0 0 0 0 0 0 0 0 0 0 0 0 0 0 0 0 0
0 1 1 0 1 1 1 1 0 0 0 0 0 0 0 0 0 0 0 0 0 0 0 0 0 0 0 0 0 0 0 0 0 0 0 0 0 0 0 0 0 0 0
0 0 1 1 2 2 1 0 0 0 0 0 0 0 0 0 0 0 0 0 0 0 0 0 0 0 0 0 0 0 0 0 0 0 0 0 0 0 0 0 0 0 0
0 0 1 2 3 3 2 1 0 0 0 0 0 0 0 0 0 0 0 0 0 0 0 0 0 0 0 0 0 0 0 0 0 0 0 0 0 0 0 0 0 0 0
0 0 1 2 3 3 2 1 0 0 0 0 0 0 0 0 0 0 0 0 0 0 0 1 1 1 1 0 0 0 0 0 0 0 0 0 0 0 0 0 0 0 0
0 0 0 1 3 3 1 0 0 0 0 0 0 0 0 0 0 0 0 0 0 0 0 1 2 2 1 0 0 0 0 0 0 0 0 0 0 0 0 0 0 0 0
0 0 0 1 2 2 1 0 0 0 0 0 0 0 0 0 0 0 0 0 0 0 0 1 1 1 1 0 0 0 0 0 0 0 0 0 0 0 0 0 0 0 0
0 0 0 0 1 1 1 0 0 0 0 0 0 0 0 0 0 0 0 0 0 0 0 0 0 0 0 0 0 0 0 0 0 0 0 0 0 0 0 0 0 0 0
0 0 0 0 1 1 0 0 0 0 0 0 0 0 0 0 0 0 0 0 0 0 0 0 0 0 0 0 0 0 0 0 0 0 0 0 0 0 0 0 0 0 0
0 0 0 1 1 1 0 0 0 0 0 0 0 0 0 0 0 0 0 0 0 0 0 0 0 0 0 0 0 0 0 0 0 0 0 0 0 0 0 0 0 0 0
0 0 0 1 1 1 0 0 0 0 0 0 0 0 0 0 0 0 0 0 0 0 0 0 0 0 0 0 0 0 0 0 0 0 0 0 0 0 0 0 0 0 0
0 0 0 0 1 0 0 0 1 1 1 0 0 0 0 0 0 0 0 0 0 0 0 0 0 0 0 0 0 0 0 0 0 0 0 0 0 0 0 0 0 0 0

GEFSMW_con_probscp_252.txt.gz
Probability
8 6 6 9 11 10 6 2 1 1 2 4 4 3 1 0 0 1 0 1 2 2 3 3 3 3 3 3 3 4 4 4 2 1 0 0 0 0 0 0 0 0 0
7 5 4 6 8 8 6 4 3 4 5 5 7 6 4 2 1 1 0 0 1 1 2 3 3 3 3 3 3 4 4 4 2 0 0 0 0 0 0 0 0 0 0
6 5 3 3 4 4 4 5 6 8 9 9 10 11 9 6 4 2 0 0 1 1 1 2 3 3 3 3 3 3 3 2 1 0 0 0 0 0 0 0 0 0 0
5 4 2 2 2 2 3 6 8 10 11 12 13 13 12 10 6 3 1 1 2 2 1 1 1 2 3 3 3 3 1 1 0 0 0 0 0 0 0 0 0 0 0
3 2 1 1 1 1 3 7 9 10 12 13 13 13 13 10 6 3 3 3 3 2 1 0 0 1 1 2 3 3 1 0 0 0 0 0 0 0 0 0 0 0 0
2 1 0 0 0 1 4 7 9 9 10 11 12 12 12 8 4 3 2 2 2 2 1 0 0 0 0 1 2 2 1 0 0 0 1 0 0 0 0 0 0 0 0
2 2 1 0 0 1 4 7 8 7 8 9 9 9 8 5 3 1 1 1 1 1 0 0 0 0 0 0 1 1 1 1 1 1 1 0 0 0 0 0 0 0 0
1 2 2 1 1 2 4 6 7 6 7 7 6 5 4 2 1 0 0 0 0 0 0 0 0 0 0 0 0 0 0 1 2 1 0 0 0 0 0 0 0 0 0
0 1 2 1 1 3 4 5 6 6 6 5 4 3 2 1 0 0 0 0 0 0 0 0 1 0 0 0 0 0 0 1 1 1 0 0 0 0 0 0 0 0 0
0 1 2 1 1 2 3 4 4 5 5 4 3 3 2 1 0 0 0 0 0 0 0 0 0 0 0 0 0 0 0 0 0 0 0 0 0 0 0 0 0 0 0
1 1 2 1 0 1 2 3 3 4 4 3 3 3 2 1 0 0 0 0 0 0 0 0 0 0 0 0 0 0 0 0 0 0 0 0 0 0 0 0 0 0 0
2 2 2 1 0 1 2 3 3 3 3 3 3 3 3 1 0 0 0 0 0 0 0 0 0 0 0 0 0 0 0 0 0 0 0 0 0 0 0 0 0 0 0
1 2 3 2 1 1 2 3 3 3 3 3 3 3 3 2 1 0 0 0 0 0 0 0 0 0 0 0 0 0 0 0 0 0 0 0 0 0 0 0 0 0 0
0 1 3 2 1 0 1 2 2 3 3 3 3 3 3 2 1 0 0 0 0 0 0 0 0 0 0 0 0 0 0 0 0 0 0 0 0 0 0 0 0 0 0
0 1 2 2 1 0 0 1 1 1 2 2 2 2 1 1 1 0 0 0 0 0 0 0 0 0 0 0 0 0 0 0 0 0 0 0 0 0 0 0 0 0 0
0 0 1 1 1 0 0 0 0 0 1 1 1 1 0 0 0 0 0 0 0 0 0 0 0 0 0 0 0 0 0 0 0 0 0 0 0 0 0 0 0 0 0
0 0 0 0 0 0 0 0 0 0 0 0 0 0 0 0 0 0 0 0 0 0 0 0 0 0 0 0 0 0 0 0 0 0 0 0 0 0 0 0 0 0 0
0 0 0 0 0 0 0 0 0 0 0 0 0 0 0 0 0 0 0 0 0 0 0 0 0 0 0 0 0 0 0 0 0 0 0 0 0 0 0 0 0 0 0
0 0 0 0 0 0 0 0 0 0 0 0 0 0 0 0 0 0 0 0 0 0 0 0 0 0 0 0 0 0 0 0 0 0 0 0 0 0 0 0 0 0 0
0 0 0 0 0 0 0 0 0 0 0 0 0 0 0 0 0 0 0 0 0 0 0 0 0 0 0 0 0 0 0 0 0 0 0 0 0 0 0 0 0 0 0
0 0 0 0 0 0 0 0 0 0 0 0 0 0 0 0 0 0 0 0 0 0 0 0 0 0 0 0 0 0 0 0 0 0 0 0 0 0 0 0 0 0 0
0 0 0 0 0 0 0 0 0 0 0 0 0 0 0 0 0 0 0 0 0 0 0 0 0 0 0 0 0 0 0 0 0 0 0 0 0 0 0 0 0 0 0
0 0 0 1 1 0 1 1 1 0 0 0 0 0 0 0 0 0 0 0 0 0 0 0 0 0 0 0 0 0 0 0 0 0 0 0 0 0 0 0 0 0 0
0 0 0 1 1 0 1 1 1 0 0 0 0 0 0 0 0 0 0 0 0 0 0 0 0 0 0 0 0 0 0 0 0 0 0 0 0 0 0 0 0 0 0
0 0 0 1 1 0 0 0 0 0 0 0 0 0 0 0 0 0 0 0 0 0 0 0 0 0 0 0 0 0 0 0 0 0 0 0 0 0 0 0 0 0 0
0 0 0 0 0 0 0 0 0 0 0 0 0 0 0 0 0 0 0 0 0 0 0 0 0 0 0 0 0 0 0 0 0 0 0 0 0 0 0 0 0 0 0